Wetterdaten: Freitag, 31.10.2014
Datum Zeit Temp. Aussen +5cm Feuchte Auss Luftdruck Regen Sonnenschein Regendauer Solar Windben
31.10.2014 00:00 12,3 C 11,1 C 97 % 1023,0 hPa 0,0 l/m 0 min 0 min 0 W/m 12,6 km/h (3 Bft)
31.10.2014 00:02 12,3 C 11,1 C 97 % 1023,0 hPa 0,0 l/m 0 min 0 min 0 W/m 12,6 km/h (3 Bft)
31.10.2014 00:05 12,3 C 11,1 C 97 % 1022,9 hPa 0,0 l/m 0 min 0 min 0 W/m 10,5 km/h (2 Bft)
31.10.2014 00:06 12,3 C 11,1 C 97 % 1022,9 hPa 0,0 l/m 0 min 0 min 0 W/m 12,6 km/h (3 Bft)
31.10.2014 00:08 12,3 C 11,1 C 97 % 1022,9 hPa 0,0 l/m 0 min 0 min 0 W/m 10,5 km/h (2 Bft)
31.10.2014 00:10 12,3 C 11,1 C 97 % 1022,9 hPa 0,0 l/m 0 min 0 min 0 W/m 12,6 km/h (3 Bft)
31.10.2014 00:12 12,3 C 11,1 C 97 % 1022,9 hPa 0,0 l/m 0 min 0 min 0 W/m 14,6 km/h (3 Bft)
31.10.2014 00:14 12,3 C 11,1 C 97 % 1022,9 hPa 0,0 l/m 0 min 0 min 0 W/m 14,6 km/h (3 Bft)
31.10.2014 00:16 12,3 C 11,1 C 97 % 1022,9 hPa 0,0 l/m 0 min 0 min 0 W/m 8,4 km/h (2 Bft)
31.10.2014 00:18 12,3 C 11,1 C 97 % 1022,9 hPa 0,0 l/m 0 min 0 min 0 W/m 12,6 km/h (3 Bft)
31.10.2014 00:20 12,3 C 11,1 C 97 % 1022,8 hPa 0,0 l/m 0 min 0 min 0 W/m 10,5 km/h (2 Bft)
31.10.2014 00:22 12,3 C 11,1 C 97 % 1022,8 hPa 0,0 l/m 0 min 0 min 0 W/m 12,6 km/h (3 Bft)
31.10.2014 00:24 12,3 C 11,1 C 97 % 1022,9 hPa 0,0 l/m 0 min 0 min 0 W/m 12,6 km/h (3 Bft)
31.10.2014 00:26 12,3 C 11,1 C 97 % 1022,9 hPa 0,0 l/m 0 min 0 min 0 W/m 12,6 km/h (3 Bft)
31.10.2014 00:28 12,3 C 11,1 C 97 % 1022,8 hPa 0,0 l/m 0 min 0 min 0 W/m 16,7 km/h (3 Bft)
31.10.2014 00:30 12,3 C 11,1 C 97 % 1022,8 hPa 0,0 l/m 0 min 0 min 0 W/m 16,7 km/h (3 Bft)
31.10.2014 00:32 12,3 C 11,1 C 97 % 1022,8 hPa 0,0 l/m 0 min 0 min 0 W/m 14,6 km/h (3 Bft)
31.10.2014 00:34 12,3 C 11,1 C 97 % 1022,8 hPa 0,0 l/m 0 min 0 min 0 W/m 12,6 km/h (3 Bft)
31.10.2014 00:36 12,3 C 11,1 C 97 % 1022,8 hPa 0,0 l/m 0 min 0 min 0 W/m 10,5 km/h (2 Bft)
31.10.2014 00:38 12,3 C 11,1 C 97 % 1022,7 hPa 0,0 l/m 0 min 0 min 0 W/m 12,6 km/h (3 Bft)
31.10.2014 00:40 12,3 C 11,1 C 97 % 1022,7 hPa 0,0 l/m 0 min 0 min 0 W/m 10,5 km/h (2 Bft)
31.10.2014 00:42 12,3 C 11,1 C 97 % 1022,8 hPa 0,0 l/m 0 min 0 min 0 W/m 14,6 km/h (3 Bft)
31.10.2014 00:44 12,3 C 11,1 C 97 % 1022,7 hPa 0,0 l/m 0 min 0 min 0 W/m 10,5 km/h (2 Bft)
31.10.2014 00:46 12,3 C 11,1 C 97 % 1022,7 hPa 0,0 l/m 0 min 0 min 0 W/m 12,6 km/h (3 Bft)
31.10.2014 00:48 12,3 C 11,1 C 97 % 1022,6 hPa 0,0 l/m 0 min 0 min 0 W/m 12,6 km/h (3 Bft)
31.10.2014 00:50 12,3 C 11,1 C 97 % 1022,5 hPa 0,0 l/m 0 min 0 min 0 W/m 12,6 km/h (3 Bft)
31.10.2014 00:52 12,3 C 11,1 C 97 % 1022,6 hPa 0,0 l/m 0 min 0 min 0 W/m 18,8 km/h (3 Bft)
31.10.2014 00:54 12,3 C 11,1 C 97 % 1022,5 hPa 0,0 l/m 0 min 0 min 0 W/m 14,6 km/h (3 Bft)
31.10.2014 00:56 12,3 C 11,1 C 97 % 1022,5 hPa 0,0 l/m 0 min 0 min 0 W/m 14,6 km/h (3 Bft)
31.10.2014 00:58 12,3 C 11,1 C 97 % 1022,5 hPa 0,0 l/m 0 min 0 min 0 W/m 16,7 km/h (3 Bft)
31.10.2014 01:00 12,3 C 11,1 C 97 % 1022,5 hPa 0,0 l/m 0 min 0 min 0 W/m 10,5 km/h (2 Bft)
31.10.2014 01:02 12,3 C 10,6 C 97 % 1022,6 hPa 0,0 l/m 0 min 0 min 0 W/m 14,6 km/h (3 Bft)
31.10.2014 01:04 12,3 C 10,6 C 97 % 1022,6 hPa 0,0 l/m 0 min 0 min 0 W/m 10,5 km/h (2 Bft)
31.10.2014 01:06 12,3 C 10,6 C 97 % 1022,7 hPa 0,0 l/m 0 min 0 min 0 W/m 16,7 km/h (3 Bft)
31.10.2014 01:08 12,3 C 10,6 C 97 % 1022,7 hPa 0,0 l/m 0 min 0 min 0 W/m 12,6 km/h (3 Bft)
31.10.2014 01:10 12,2 C 10,6 C 97 % 1022,7 hPa 0,0 l/m 0 min 0 min 0 W/m 10,5 km/h (2 Bft)
31.10.2014 01:12 12,2 C 10,6 C 97 % 1022,8 hPa 0,0 l/m 0 min 0 min 0 W/m 8,4 km/h (2 Bft)
31.10.2014 01:14 12,2 C 10,6 C 97 % 1022,7 hPa 0,0 l/m 0 min 0 min 0 W/m 6,3 km/h (2 Bft)
31.10.2014 01:16 12,2 C 10,6 C 97 % 1022,7 hPa 0,0 l/m 0 min 0 min 0 W/m 6,3 km/h (2 Bft)
31.10.2014 01:18 12,2 C 10,6 C 97 % 1022,7 hPa 0,0 l/m 0 min 0 min 0 W/m 6,3 km/h (2 Bft)
31.10.2014 01:20 12,2 C 10,6 C 97 % 1022,8 hPa 0,0 l/m 0 min 0 min 0 W/m 8,4 km/h (2 Bft)
31.10.2014 01:22 12,2 C 10,6 C 97 % 1022,8 hPa 0,0 l/m 0 min 0 min 0 W/m 8,4 km/h (2 Bft)
31.10.2014 01:24 12,2 C 10,6 C 97 % 1022,8 hPa 0,0 l/m 0 min 0 min 0 W/m 8,4 km/h (2 Bft)
31.10.2014 01:26 12,2 C 10,6 C 97 % 1022,8 hPa 0,0 l/m 0 min 0 min 0 W/m 10,5 km/h (2 Bft)
31.10.2014 01:28 12,2 C 10,6 C 97 % 1022,7 hPa 0,0 l/m 0 min 0 min 0 W/m 12,6 km/h (3 Bft)
31.10.2014 01:30 12,2 C 10,6 C 97 % 1022,7 hPa 0,0 l/m 0 min 0 min 0 W/m 12,6 km/h (3 Bft)
31.10.2014 01:32 12,2 C 10,6 C 97 % 1022,7 hPa 0,0 l/m 0 min 0 min 0 W/m 12,6 km/h (3 Bft)
31.10.2014 01:34 12,2 C 10,6 C 97 % 1022,7 hPa 0,0 l/m 0 min 0 min 0 W/m 8,4 km/h (2 Bft)
31.10.2014 01:36 12,2 C 10,6 C 97 % 1022,7 hPa 0,0 l/m 0 min 0 min 0 W/m 8,4 km/h (2 Bft)
31.10.2014 01:38 12,2 C 10,6 C 97 % 1022,7 hPa 0,0 l/m 0 min 0 min 0 W/m 8,4 km/h (2 Bft)
31.10.2014 01:40 12,1 C 10,6 C 97 % 1022,8 hPa 0,0 l/m 0 min 0 min 0 W/m 10,5 km/h (2 Bft)
31.10.2014 01:42 12,1 C 10,6 C 97 % 1022,8 hPa 0,0 l/m 0 min 0 min 0 W/m 8,4 km/h (2 Bft)
31.10.2014 01:44 12,1 C 10,6 C 97 % 1022,9 hPa 0,0 l/m 0 min 0 min 0 W/m 8,4 km/h (2 Bft)
31.10.2014 01:46 12,1 C 10,6 C 97 % 1022,8 hPa 0,0 l/m 0 min 0 min 0 W/m 10,5 km/h (2 Bft)
31.10.2014 01:48 12,1 C 10,6 C 97 % 1022,8 hPa 0,0 l/m 0 min 0 min 0 W/m 6,3 km/h (2 Bft)
31.10.2014 01:50 12,1 C 10,6 C 97 % 1022,8 hPa 0,0 l/m 0 min 0 min 0 W/m 6,3 km/h (2 Bft)
31.10.2014 01:52 12,1 C 10,6 C 97 % 1022,9 hPa 0,0 l/m 0 min 0 min 0 W/m 10,5 km/h (2 Bft)
31.10.2014 01:54 12,1 C 10,6 C 97 % 1022,9 hPa 0,0 l/m 0 min 0 min 0 W/m 8,4 km/h (2 Bft)
31.10.2014 01:56 12,1 C 10,6 C 97 % 1022,9 hPa 0,0 l/m 0 min 0 min 0 W/m 8,4 km/h (2 Bft)
31.10.2014 01:58 12,1 C 10,6 C 97 % 1023,0 hPa 0,0 l/m 0 min 0 min 0 W/m 6,3 km/h (2 Bft)
31.10.2014 02:00 12,1 C 10,6 C 97 % 1023,0 hPa 0,0 l/m 0 min 0 min 0 W/m 6,3 km/h (2 Bft)
31.10.2014 02:02 12,1 C 10,6 C 97 % 1022,9 hPa 0,0 l/m 0 min 0 min 0 W/m 6,3 km/h (2 Bft)
31.10.2014 02:04 12,1 C 10,6 C 97 % 1022,9 hPa 0,0 l/m 0 min 0 min 0 W/m 4,2 km/h (1 Bft)
31.10.2014 02:06 12,0 C 10,6 C 97 % 1022,9 hPa 0,0 l/m 0 min 0 min 0 W/m 6,3 km/h (2 Bft)
31.10.2014 02:08 12,0 C 10,6 C 97 % 1022,9 hPa 0,0 l/m 0 min 0 min 0 W/m 6,3 km/h (2 Bft)
31.10.2014 02:10 12,0 C 10,6 C 97 % 1022,9 hPa 0,0 l/m 0 min 0 min 0 W/m 8,4 km/h (2 Bft)
31.10.2014 02:12 12,0 C 10,6 C 97 % 1022,9 hPa 0,0 l/m 0 min 0 min 0 W/m 6,3 km/h (2 Bft)
31.10.2014 02:14 12,0 C 10,6 C 97 % 1022,8 hPa 0,0 l/m 0 min 0 min 0 W/m 8,4 km/h (2 Bft)
31.10.2014 02:16 12,0 C 10,6 C 97 % 1022,8 hPa 0,0 l/m 0 min 0 min 0 W/m 10,5 km/h (2 Bft)
31.10.2014 02:18 12,0 C 10,6 C 97 % 1022,7 hPa 0,0 l/m 0 min 0 min 0 W/m 8,4 km/h (2 Bft)
31.10.2014 02:20 11,9 C 10,6 C 97 % 1022,7 hPa 0,0 l/m 0 min 0 min 0 W/m 8,4 km/h (2 Bft)
31.10.2014 02:22 11,9 C 10,6 C 97 % 1022,5 hPa 0,0 l/m 0 min 0 min 0 W/m 8,4 km/h (2 Bft)
31.10.2014 02:24 11,9 C 10,6 C 97 % 1022,5 hPa 0,0 l/m 0 min 0 min 0 W/m 8,4 km/h (2 Bft)
31.10.2014 02:26 11,9 C 10,0 C 97 % 1022,5 hPa 0,0 l/m 0 min 0 min 0 W/m 8,4 km/h (2 Bft)
31.10.2014 02:28 11,9 C 10,0 C 97 % 1022,4 hPa 0,0 l/m 0 min 0 min 0 W/m 8,4 km/h (2 Bft)
31.10.2014 02:30 11,9 C 10,0 C 97 % 1022,4 hPa 0,0 l/m 0 min 0 min 0 W/m 12,6 km/h (3 Bft)
31.10.2014 02:32 11,9 C 10,0 C 97 % 1022,5 hPa 0,0 l/m 0 min 0 min 0 W/m 12,6 km/h (3 Bft)
31.10.2014 02:34 11,9 C 10,0 C 97 % 1022,5 hPa 0,0 l/m 0 min 0 min 0 W/m 10,5 km/h (2 Bft)
31.10.2014 02:36 11,9 C 10,0 C 97 % 1022,5 hPa 0,0 l/m 0 min 0 min 0 W/m 8,4 km/h (2 Bft)
31.10.2014 02:38 11,8 C 10,0 C 97 % 1022,5 hPa 0,0 l/m 0 min 0 min 0 W/m 6,3 km/h (2 Bft)
31.10.2014 02:40 11,8 C 10,0 C 97 % 1022,4 hPa 0,0 l/m 0 min 0 min 0 W/m 8,4 km/h (2 Bft)
31.10.2014 02:42 11,8 C 10,0 C 97 % 1022,4 hPa 0,0 l/m 0 min 0 min 0 W/m 8,4 km/h (2 Bft)
31.10.2014 02:44 11,8 C 10,0 C 97 % 1022,4 hPa 0,0 l/m 0 min 0 min 0 W/m 12,6 km/h (3 Bft)
31.10.2014 02:46 11,8 C 10,0 C 97 % 1022,5 hPa 0,0 l/m 0 min 0 min 0 W/m 12,6 km/h (3 Bft)
31.10.2014 02:48 11,8 C 10,0 C 97 % 1022,5 hPa 0,0 l/m 0 min 0 min 0 W/m 8,4 km/h (2 Bft)
31.10.2014 02:50 11,7 C 10,0 C 97 % 1022,4 hPa 0,0 l/m 0 min 0 min 0 W/m 8,4 km/h (2 Bft)
31.10.2014 02:52 11,7 C 10,0 C 97 % 1022,5 hPa 0,0 l/m 0 min 0 min 0 W/m 6,3 km/h (2 Bft)
31.10.2014 02:54 11,7 C 10,0 C 97 % 1022,4 hPa 0,0 l/m 0 min 0 min 0 W/m 8,4 km/h (2 Bft)
31.10.2014 02:56 11,7 C 10,0 C 97 % 1022,4 hPa 0,0 l/m 0 min 0 min 0 W/m 10,5 km/h (2 Bft)
31.10.2014 02:58 11,7 C 10,0 C 97 % 1022,4 hPa 0,0 l/m 0 min 0 min 0 W/m 10,5 km/h (2 Bft)
31.10.2014 03:00 11,7 C 10,0 C 97 % 1022,3 hPa 0,0 l/m 0 min 0 min 0 W/m 10,5 km/h (2 Bft)
31.10.2014 03:02 11,7 C 10,0 C 97 % 1022,4 hPa 0,0 l/m 0 min 0 min 0 W/m 10,5 km/h (2 Bft)
31.10.2014 03:04 11,6 C 10,0 C 97 % 1022,4 hPa 0,0 l/m 0 min 0 min 0 W/m 10,5 km/h (2 Bft)
31.10.2014 03:06 11,6 C 10,0 C 97 % 1022,3 hPa 0,0 l/m 0 min 0 min 0 W/m 8,4 km/h (2 Bft)
31.10.2014 03:08 11,6 C 10,0 C 97 % 1022,4 hPa 0,0 l/m 0 min 0 min 0 W/m 10,5 km/h (2 Bft)
31.10.2014 03:10 11,6 C 10,0 C 97 % 1022,3 hPa 0,0 l/m 0 min 0 min 0 W/m 8,4 km/h (2 Bft)
31.10.2014 03:12 11,6 C 10,0 C 97 % 1022,4 hPa 0,0 l/m 0 min 0 min 0 W/m 6,3 km/h (2 Bft)
31.10.2014 03:14 11,6 C 10,0 C 97 % 1022,5 hPa 0,0 l/m 0 min 0 min 0 W/m 8,4 km/h (2 Bft)
31.10.2014 03:16 11,6 C 9,4 C 97 % 1022,4 hPa 0,0 l/m 0 min 0 min 0 W/m 8,4 km/h (2 Bft)
31.10.2014 03:18 11,5 C 9,4 C 97 % 1022,4 hPa 0,0 l/m 0 min 0 min 0 W/m 10,5 km/h (2 Bft)
31.10.2014 03:20 11,5 C 9,4 C 97 % 1022,4 hPa 0,0 l/m 0 min 0 min 0 W/m 8,4 km/h (2 Bft)
31.10.2014 03:22 11,5 C 9,4 C 97 % 1022,4 hPa 0,0 l/m 0 min 0 min 0 W/m 8,4 km/h (2 Bft)
31.10.2014 03:24 11,4 C 9,4 C 97 % 1022,4 hPa 0,0 l/m 0 min 0 min 0 W/m 8,4 km/h (2 Bft)
31.10.2014 03:26 11,4 C 9,4 C 97 % 1022,4 hPa 0,0 l/m 0 min 0 min 0 W/m 10,5 km/h (2 Bft)
31.10.2014 03:28 11,4 C 9,4 C 97 % 1022,4 hPa 0,0 l/m 0 min 0 min 0 W/m 8,4 km/h (2 Bft)
31.10.2014 03:30 11,4 C 9,4 C 97 % 1022,4 hPa 0,0 l/m 0 min 0 min 0 W/m 6,3 km/h (2 Bft)
31.10.2014 03:32 11,4 C 9,4 C 97 % 1022,4 hPa 0,0 l/m 0 min 0 min 0 W/m 8,4 km/h (2 Bft)
31.10.2014 03:34 11,4 C 9,4 C 97 % 1022,4 hPa 0,0 l/m 0 min 0 min 0 W/m 8,4 km/h (2 Bft)
31.10.2014 03:36 11,4 C 9,4 C 97 % 1022,4 hPa 0,0 l/m 0 min 0 min 0 W/m 6,3 km/h (2 Bft)
31.10.2014 03:38 11,3 C 9,4 C 97 % 1022,4 hPa 0,0 l/m 0 min 0 min 0 W/m 10,5 km/h (2 Bft)
31.10.2014 03:40 11,3 C 9,4 C 97 % 1022,4 hPa 0,0 l/m 0 min 0 min 0 W/m 10,5 km/h (2 Bft)
31.10.2014 03:42 11,3 C 9,4 C 97 % 1022,4 hPa 0,0 l/m 0 min 0 min 0 W/m 10,5 km/h (2 Bft)
31.10.2014 03:44 11,3 C 9,4 C 97 % 1022,4 hPa 0,0 l/m 0 min 0 min 0 W/m 6,3 km/h (2 Bft)
31.10.2014 03:46 11,3 C 9,4 C 97 % 1022,3 hPa 0,0 l/m 0 min 0 min 0 W/m 8,4 km/h (2 Bft)
31.10.2014 03:48 11,3 C 9,4 C 97 % 1022,4 hPa 0,0 l/m 0 min 0 min 0 W/m 10,5 km/h (2 Bft)
31.10.2014 03:50 11,3 C 9,4 C 97 % 1022,4 hPa 0,0 l/m 0 min 0 min 0 W/m 8,4 km/h (2 Bft)
31.10.2014 03:52 11,2 C 9,4 C 97 % 1022,3 hPa 0,0 l/m 0 min 0 min 0 W/m 8,4 km/h (2 Bft)
31.10.2014 03:54 11,2 C 9,4 C 97 % 1022,3 hPa 0,0 l/m 0 min 0 min 0 W/m 8,4 km/h (2 Bft)
31.10.2014 03:56 11,2 C 9,4 C 97 % 1022,3 hPa 0,0 l/m 0 min 0 min 0 W/m 10,5 km/h (2 Bft)
31.10.2014 03:58 11,2 C 9,4 C 97 % 1022,2 hPa 0,0 l/m 0 min 0 min 0 W/m 10,5 km/h (2 Bft)
31.10.2014 04:00 11,2 C 9,4 C 97 % 1022,3 hPa 0,0 l/m 0 min 0 min 0 W/m 8,4 km/h (2 Bft)
31.10.2014 04:02 11,2 C 9,4 C 97 % 1022,3 hPa 0,0 l/m 0 min 0 min 0 W/m 8,4 km/h (2 Bft)
31.10.2014 04:04 11,2 C 9,4 C 97 % 1022,4 hPa 0,0 l/m 0 min 0 min 0 W/m 6,3 km/h (2 Bft)
31.10.2014 04:06 11,2 C 9,4 C 97 % 1022,4 hPa 0,0 l/m 0 min 0 min 0 W/m 6,3 km/h (2 Bft)
31.10.2014 04:11 11,2 C 9,4 C 97 % 1022,3 hPa 0,0 l/m 0 min 0 min 0 W/m 10,5 km/h (2 Bft)
31.10.2014 04:12 11,2 C 9,4 C 97 % 1022,3 hPa 0,0 l/m 0 min 0 min 0 W/m 8,4 km/h (2 Bft)
31.10.2014 04:14 11,2 C 9,4 C 97 % 1022,4 hPa 0,0 l/m 0 min 0 min 0 W/m 10,5 km/h (2 Bft)
31.10.2014 04:16 11,2 C 9,4 C 97 % 1022,2 hPa 0,0 l/m 0 min 0 min 0 W/m 8,4 km/h (2 Bft)
31.10.2014 04:18 11,1 C 9,4 C 97 % 1022,3 hPa 0,0 l/m 0 min 0 min 0 W/m 6,3 km/h (2 Bft)
31.10.2014 04:20 11,1 C 9,4 C 97 % 1022,3 hPa 0,0 l/m 0 min 0 min 0 W/m 8,4 km/h (2 Bft)
31.10.2014 04:22 11,1 C 9,4 C 97 % 1022,4 hPa 0,0 l/m 0 min 0 min 0 W/m 10,5 km/h (2 Bft)
31.10.2014 04:24 11,1 C 9,4 C 97 % 1022,3 hPa 0,0 l/m 0 min 0 min 0 W/m 10,5 km/h (2 Bft)
31.10.2014 04:26 11,1 C 9,4 C 97 % 1022,4 hPa 0,0 l/m 0 min 0 min 0 W/m 8,4 km/h (2 Bft)
31.10.2014 04:28 11,1 C 9,4 C 97 % 1022,4 hPa 0,0 l/m 0 min 0 min 0 W/m 8,4 km/h (2 Bft)
31.10.2014 04:30 11,1 C 9,4 C 97 % 1022,4 hPa 0,0 l/m 0 min 0 min 0 W/m 8,4 km/h (2 Bft)
31.10.2014 04:32 11,1 C 9,4 C 97 % 1022,4 hPa 0,0 l/m 0 min 0 min 0 W/m 10,5 km/h (2 Bft)
31.10.2014 04:34 11,1 C 9,4 C 97 % 1022,4 hPa 0,0 l/m 0 min 0 min 0 W/m 6,3 km/h (2 Bft)
31.10.2014 04:36 11,1 C 9,4 C 97 % 1022,4 hPa 0,0 l/m 0 min 0 min 0 W/m 8,4 km/h (2 Bft)
31.10.2014 04:38 11,0 C 9,4 C 97 % 1022,4 hPa 0,0 l/m 0 min 0 min 0 W/m 10,5 km/h (2 Bft)
31.10.2014 04:40 11,0 C 9,4 C 97 % 1022,4 hPa 0,0 l/m 0 min 0 min 0 W/m 6,3 km/h (2 Bft)
31.10.2014 04:42 11,0 C 9,4 C 97 % 1022,3 hPa 0,0 l/m 0 min 0 min 0 W/m 8,4 km/h (2 Bft)
31.10.2014 04:44 11,0 C 9,4 C 97 % 1022,3 hPa 0,0 l/m 0 min 0 min 0 W/m 10,5 km/h (2 Bft)
31.10.2014 04:46 11,0 C 9,4 C 97 % 1022,2 hPa 0,0 l/m 0 min 0 min 0 W/m 8,4 km/h (2 Bft)
31.10.2014 04:48 10,9 C 9,4 C 97 % 1022,2 hPa 0,0 l/m 0 min 0 min 0 W/m 10,5 km/h (2 Bft)
31.10.2014 04:50 10,9 C 9,4 C 97 % 1022,2 hPa 0,0 l/m 0 min 0 min 0 W/m 10,5 km/h (2 Bft)
31.10.2014 04:52 10,9 C 9,4 C 97 % 1022,3 hPa 0,0 l/m 0 min 0 min 0 W/m 12,6 km/h (3 Bft)
31.10.2014 04:54 10,9 C 9,4 C 97 % 1022,2 hPa 0,0 l/m 0 min 0 min 0 W/m 8,4 km/h (2 Bft)
31.10.2014 04:56 10,9 C 9,4 C 97 % 1022,2 hPa 0,0 l/m 0 min 0 min 0 W/m 8,4 km/h (2 Bft)
31.10.2014 04:58 10,9 C 9,4 C 97 % 1022,2 hPa 0,0 l/m 0 min 0 min 0 W/m 10,5 km/h (2 Bft)
31.10.2014 05:00 10,9 C 9,4 C 97 % 1022,2 hPa 0,0 l/m 0 min 0 min 0 W/m 10,5 km/h (2 Bft)
31.10.2014 05:02 10,9 C 9,4 C 97 % 1022,2 hPa 0,0 l/m 0 min 0 min 0 W/m 6,3 km/h (2 Bft)
31.10.2014 05:04 10,9 C 9,4 C 97 % 1022,1 hPa 0,0 l/m 0 min 0 min 0 W/m 10,5 km/h (2 Bft)
31.10.2014 05:06 10,9 C 9,4 C 98 % 1022,1 hPa 0,0 l/m 0 min 0 min 0 W/m 8,4 km/h (2 Bft)
31.10.2014 05:08 10,9 C 9,4 C 98 % 1022,2 hPa 0,0 l/m 0 min 0 min 0 W/m 6,3 km/h (2 Bft)
31.10.2014 05:10 10,9 C 9,4 C 98 % 1022,2 hPa 0,0 l/m 0 min 0 min 0 W/m 6,3 km/h (2 Bft)
31.10.2014 05:12 10,9 C 9,4 C 98 % 1022,2 hPa 0,0 l/m 0 min 0 min 0 W/m 6,3 km/h (2 Bft)
31.10.2014 05:14 10,9 C 9,4 C 98 % 1022,2 hPa 0,0 l/m 0 min 0 min 0 W/m 8,4 km/h (2 Bft)
31.10.2014 05:16 10,9 C 9,4 C 98 % 1022,2 hPa 0,0 l/m 0 min 0 min 0 W/m 8,4 km/h (2 Bft)
31.10.2014 05:18 10,9 C 9,4 C 98 % 1022,2 hPa 0,0 l/m 0 min 0 min 0 W/m 8,4 km/h (2 Bft)
31.10.2014 05:20 10,9 C 9,4 C 98 % 1022,1 hPa 0,0 l/m 0 min 0 min 0 W/m 8,4 km/h (2 Bft)
31.10.2014 05:22 10,9 C 9,4 C 98 % 1022,1 hPa 0,0 l/m 0 min 0 min 0 W/m 6,3 km/h (2 Bft)
31.10.2014 05:24 10,9 C 9,4 C 98 % 1022,1 hPa 0,0 l/m 0 min 0 min 0 W/m 10,5 km/h (2 Bft)
31.10.2014 05:26 10,9 C 9,4 C 98 % 1022,2 hPa 0,0 l/m 0 min 0 min 0 W/m 8,4 km/h (2 Bft)
31.10.2014 05:28 10,9 C 9,4 C 98 % 1022,2 hPa 0,0 l/m 0 min 0 min 0 W/m 10,5 km/h (2 Bft)
31.10.2014 05:30 10,9 C 9,4 C 98 % 1022,1 hPa 0,0 l/m 0 min 0 min 0 W/m 10,5 km/h (2 Bft)
31.10.2014 05:32 10,9 C 9,4 C 98 % 1022,1 hPa 0,0 l/m 0 min 0 min 0 W/m 6,3 km/h (2 Bft)
31.10.2014 05:34 10,9 C 9,4 C 98 % 1022,1 hPa 0,0 l/m 0 min 0 min 0 W/m 10,5 km/h (2 Bft)
31.10.2014 05:36 10,8 C 9,4 C 98 % 1022,1 hPa 0,0 l/m 0 min 0 min 0 W/m 8,4 km/h (2 Bft)
31.10.2014 05:38 10,9 C 9,4 C 98 % 1022,1 hPa 0,0 l/m 0 min 0 min 0 W/m 10,5 km/h (2 Bft)
31.10.2014 05:40 10,9 C 9,4 C 98 % 1022,1 hPa 0,0 l/m 0 min 0 min 0 W/m 8,4 km/h (2 Bft)
31.10.2014 05:42 10,9 C 9,4 C 98 % 1022,1 hPa 0,0 l/m 0 min 0 min 0 W/m 8,4 km/h (2 Bft)
31.10.2014 05:44 10,9 C 9,4 C 98 % 1022,1 hPa 0,0 l/m 0 min 0 min 0 W/m 8,4 km/h (2 Bft)
31.10.2014 05:46 10,9 C 9,4 C 98 % 1022,2 hPa 0,0 l/m 0 min 0 min 0 W/m 8,4 km/h (2 Bft)
31.10.2014 05:48 10,9 C 10,0 C 98 % 1022,2 hPa 0,0 l/m 0 min 0 min 0 W/m 8,4 km/h (2 Bft)
31.10.2014 05:50 10,9 C 10,0 C 98 % 1022,1 hPa 0,0 l/m 0 min 0 min 0 W/m 12,6 km/h (3 Bft)
31.10.2014 05:52 11,0 C 10,0 C 98 % 1022,1 hPa 0,0 l/m 0 min 0 min 0 W/m 12,6 km/h (3 Bft)
31.10.2014 05:54 11,0 C 10,0 C 98 % 1022,1 hPa 0,0 l/m 0 min 0 min 0 W/m 14,6 km/h (3 Bft)
31.10.2014 05:56 11,0 C 10,0 C 98 % 1022,1 hPa 0,0 l/m 0 min 0 min 0 W/m 12,6 km/h (3 Bft)
31.10.2014 05:58 11,1 C 10,0 C 98 % 1022,0 hPa 0,0 l/m 0 min 0 min 0 W/m 10,5 km/h (2 Bft)
31.10.2014 06:00 11,1 C 10,0 C 98 % 1022,0 hPa 0,0 l/m 0 min 0 min 0 W/m 14,6 km/h (3 Bft)
31.10.2014 06:02 11,1 C 10,0 C 98 % 1022,1 hPa 0,0 l/m 0 min 0 min 0 W/m 14,6 km/h (3 Bft)
31.10.2014 06:05 11,1 C 10,0 C 98 % 1022,0 hPa 0,0 l/m 0 min 0 min 0 W/m 10,5 km/h (2 Bft)
31.10.2014 06:06 11,2 C 10,0 C 98 % 1022,0 hPa 0,0 l/m 0 min 0 min 0 W/m 16,7 km/h (3 Bft)
31.10.2014 06:08 11,2 C 10,0 C 98 % 1022,0 hPa 0,0 l/m 0 min 0 min 0 W/m 14,6 km/h (3 Bft)
31.10.2014 06:10 11,2 C 10,0 C 98 % 1022,1 hPa 0,0 l/m 0 min 0 min 0 W/m 16,7 km/h (3 Bft)
31.10.2014 06:12 11,2 C 10,0 C 98 % 1022,1 hPa 0,0 l/m 0 min 0 min 0 W/m 10,5 km/h (2 Bft)
31.10.2014 06:14 11,2 C 10,0 C 98 % 1022,0 hPa 0,0 l/m 0 min 0 min 0 W/m 14,6 km/h (3 Bft)
31.10.2014 06:16 11,3 C 10,0 C 98 % 1022,1 hPa 0,0 l/m 0 min 0 min 0 W/m 12,6 km/h (3 Bft)
31.10.2014 06:18 11,3 C 10,0 C 98 % 1022,0 hPa 0,0 l/m 0 min 0 min 0 W/m 18,8 km/h (3 Bft)
31.10.2014 06:20 11,3 C 10,0 C 98 % 1022,0 hPa 0,0 l/m 0 min 0 min 0 W/m 12,6 km/h (3 Bft)
31.10.2014 06:22 11,3 C 10,0 C 98 % 1022,1 hPa 0,0 l/m 0 min 0 min 0 W/m 14,6 km/h (3 Bft)
31.10.2014 06:24 11,3 C 10,0 C 98 % 1022,1 hPa 0,0 l/m 0 min 0 min 0 W/m 12,6 km/h (3 Bft)
31.10.2014 06:26 11,3 C 10,0 C 98 % 1022,1 hPa 0,0 l/m 0 min 0 min 0 W/m 12,6 km/h (3 Bft)
31.10.2014 06:28 11,3 C 10,0 C 98 % 1022,0 hPa 0,0 l/m 0 min 0 min 0 W/m 14,6 km/h (3 Bft)
31.10.2014 06:30 11,3 C 10,0 C 98 % 1022,1 hPa 0,0 l/m 0 min 0 min 0 W/m 12,6 km/h (3 Bft)
31.10.2014 06:32 11,3 C 10,0 C 98 % 1022,1 hPa 0,0 l/m 0 min 0 min 0 W/m 10,5 km/h (2 Bft)
31.10.2014 06:34 11,3 C 10,0 C 98 % 1022,1 hPa 0,0 l/m 0 min 0 min 0 W/m 12,6 km/h (3 Bft)
31.10.2014 06:36 11,3 C 10,0 C 98 % 1022,1 hPa 0,0 l/m 0 min 0 min 0 W/m 14,6 km/h (3 Bft)
31.10.2014 06:38 11,3 C 10,0 C 98 % 1022,0 hPa 0,0 l/m 0 min 0 min 0 W/m 14,6 km/h (3 Bft)
31.10.2014 06:40 11,4 C 10,0 C 98 % 1022,0 hPa 0,0 l/m 0 min 0 min 0 W/m 12,6 km/h (3 Bft)
31.10.2014 06:42 11,4 C 10,0 C 98 % 1022,1 hPa 0,0 l/m 0 min 0 min 0 W/m 12,6 km/h (3 Bft)
31.10.2014 06:44 11,4 C 10,0 C 98 % 1022,0 hPa 0,0 l/m 0 min 0 min 0 W/m 14,6 km/h (3 Bft)
31.10.2014 06:46 11,4 C 10,0 C 98 % 1022,0 hPa 0,0 l/m 0 min 0 min 0 W/m 12,6 km/h (3 Bft)
31.10.2014 06:48 11,4 C 10,0 C 98 % 1022,1 hPa 0,0 l/m 0 min 0 min 0 W/m 14,6 km/h (3 Bft)
31.10.2014 06:50 11,4 C 10,0 C 98 % 1022,1 hPa 0,0 l/m 0 min 0 min 0 W/m 10,5 km/h (2 Bft)
31.10.2014 06:52 11,4 C 10,0 C 98 % 1022,1 hPa 0,0 l/m 0 min 0 min 0 W/m 12,6 km/h (3 Bft)
31.10.2014 06:54 11,4 C 10,0 C 98 % 1022,1 hPa 0,0 l/m 0 min 0 min 0 W/m 10,5 km/h (2 Bft)
31.10.2014 06:56 11,4 C 10,0 C 98 % 1022,0 hPa 0,0 l/m 0 min 0 min 0 W/m 16,7 km/h (3 Bft)
31.10.2014 06:58 11,4 C 10,0 C 98 % 1022,1 hPa 0,0 l/m 0 min 0 min 0 W/m 12,6 km/h (3 Bft)
31.10.2014 07:00 11,4 C 10,0 C 98 % 1022,1 hPa 0,0 l/m 0 min 0 min 0 W/m 10,5 km/h (2 Bft)
31.10.2014 07:02 11,4 C 10,0 C 98 % 1022,1 hPa 0,0 l/m 0 min 0 min 0 W/m 10,5 km/h (2 Bft)
31.10.2014 07:04 11,4 C 10,0 C 98 % 1022,1 hPa 0,0 l/m 0 min 0 min 0 W/m 12,6 km/h (3 Bft)
31.10.2014 07:06 11,4 C 10,0 C 98 % 1022,2 hPa 0,0 l/m 0 min 0 min 0 W/m 8,4 km/h (2 Bft)
31.10.2014 07:08 11,4 C 10,0 C 98 % 1022,2 hPa 0,0 l/m 0 min 0 min 0 W/m 10,5 km/h (2 Bft)
31.10.2014 07:10 11,4 C 10,0 C 98 % 1022,2 hPa 0,0 l/m 0 min 0 min 0 W/m 14,6 km/h (3 Bft)
31.10.2014 07:12 11,4 C 10,6 C 98 % 1022,2 hPa 0,0 l/m 0 min 0 min 0 W/m 14,6 km/h (3 Bft)
31.10.2014 07:14 11,4 C 10,0 C 98 % 1022,2 hPa 0,0 l/m 0 min 0 min 0 W/m 12,6 km/h (3 Bft)
31.10.2014 07:16 11,4 C 10,0 C 98 % 1022,2 hPa 0,0 l/m 0 min 0 min 0 W/m 8,4 km/h (2 Bft)
31.10.2014 07:18 11,4 C 10,0 C 98 % 1022,2 hPa 0,0 l/m 0 min 0 min 4 W/m 10,5 km/h (2 Bft)
31.10.2014 07:20 11,4 C 10,6 C 98 % 1022,2 hPa 0,0 l/m 0 min 0 min 5 W/m 10,5 km/h (2 Bft)
31.10.2014 07:22 11,4 C 10,0 C 98 % 1022,2 hPa 0,0 l/m 0 min 0 min 5 W/m 8,4 km/h (2 Bft)
31.10.2014 07:24 11,4 C 10,0 C 98 % 1022,3 hPa 0,0 l/m 0 min 0 min 5 W/m 10,5 km/h (2 Bft)
31.10.2014 07:26 11,4 C 10,0 C 98 % 1022,2 hPa 0,0 l/m 0 min 0 min 5 W/m 14,6 km/h (3 Bft)
31.10.2014 07:28 11,4 C 10,0 C 98 % 1022,2 hPa 0,0 l/m 0 min 0 min 5 W/m 12,6 km/h (3 Bft)
31.10.2014 07:30 11,4 C 10,0 C 98 % 1022,2 hPa 0,0 l/m 0 min 0 min 6 W/m 10,5 km/h (2 Bft)
31.10.2014 07:32 11,4 C 10,0 C 98 % 1022,2 hPa 0,0 l/m 0 min 0 min 7 W/m 8,4 km/h (2 Bft)
31.10.2014 07:34 11,4 C 10,6 C 98 % 1022,2 hPa 0,0 l/m 0 min 0 min 8 W/m 14,6 km/h (3 Bft)
31.10.2014 07:36 11,4 C 10,6 C 98 % 1022,2 hPa 0,0 l/m 0 min 0 min 10 W/m 10,5 km/h (2 Bft)
31.10.2014 07:38 11,4 C 10,6 C 98 % 1022,2 hPa 0,0 l/m 0 min 0 min 11 W/m 14,6 km/h (3 Bft)
31.10.2014 07:40 11,5 C 10,6 C 98 % 1022,2 hPa 0,0 l/m 0 min 0 min 12 W/m 10,5 km/h (2 Bft)
31.10.2014 07:42 11,5 C 10,6 C 98 % 1022,3 hPa 0,0 l/m 0 min 0 min 13 W/m 10,5 km/h (2 Bft)
31.10.2014 07:44 11,5 C 10,6 C 98 % 1022,3 hPa 0,0 l/m 0 min 0 min 14 W/m 12,6 km/h (3 Bft)
31.10.2014 07:46 11,5 C 10,6 C 98 % 1022,4 hPa 0,0 l/m 0 min 0 min 17 W/m 10,5 km/h (2 Bft)
31.10.2014 07:48 11,5 C 10,6 C 98 % 1022,4 hPa 0,0 l/m 0 min 0 min 18 W/m 10,5 km/h (2 Bft)
31.10.2014 07:50 11,5 C 10,6 C 98 % 1022,3 hPa 0,0 l/m 0 min 0 min 20 W/m 8,4 km/h (2 Bft)
31.10.2014 07:52 11,5 C 10,6 C 98 % 1022,4 hPa 0,0 l/m 0 min 0 min 21 W/m 14,6 km/h (3 Bft)
31.10.2014 07:54 11,5 C 10,6 C 98 % 1022,4 hPa 0,0 l/m 0 min 0 min 23 W/m 12,6 km/h (3 Bft)
31.10.2014 07:56 11,5 C 10,6 C 98 % 1022,5 hPa 0,0 l/m 0 min 0 min 25 W/m 8,4 km/h (2 Bft)
31.10.2014 07:58 11,6 C 10,6 C 98 % 1022,5 hPa 0,0 l/m 0 min 0 min 26 W/m 10,5 km/h (2 Bft)
31.10.2014 08:00 11,6 C 10,6 C 98 % 1022,5 hPa 0,0 l/m 0 min 0 min 29 W/m 16,7 km/h (3 Bft)
31.10.2014 08:02 11,6 C 10,6 C 98 % 1022,5 hPa 0,0 l/m 0 min 0 min 30 W/m 10,5 km/h (2 Bft)
31.10.2014 08:04 11,6 C 10,6 C 98 % 1022,5 hPa 0,0 l/m 0 min 0 min 30 W/m 10,5 km/h (2 Bft)
31.10.2014 08:06 11,6 C 10,6 C 98 % 1022,5 hPa 0,0 l/m 0 min 0 min 30 W/m 10,5 km/h (2 Bft)
31.10.2014 08:08 11,6 C 10,6 C 98 % 1022,5 hPa 0,0 l/m 0 min 0 min 32 W/m 10,5 km/h (2 Bft)
31.10.2014 08:10 11,7 C 11,1 C 98 % 1022,4 hPa 0,0 l/m 0 min 0 min 34 W/m 10,5 km/h (2 Bft)
31.10.2014 08:12 11,7 C 11,1 C 98 % 1022,5 hPa 0,0 l/m 0 min 0 min 38 W/m 10,5 km/h (2 Bft)
31.10.2014 08:14 11,7 C 11,1 C 98 % 1022,5 hPa 0,0 l/m 0 min 0 min 42 W/m 16,7 km/h (3 Bft)
31.10.2014 08:16 11,7 C 11,1 C 99 % 1022,5 hPa 0,0 l/m 0 min 0 min 45 W/m 10,5 km/h (2 Bft)
31.10.2014 08:18 11,7 C 11,1 C 99 % 1022,6 hPa 0,0 l/m 0 min 0 min 48 W/m 18,8 km/h (3 Bft)
31.10.2014 08:20 11,7 C 11,1 C 99 % 1022,6 hPa 0,0 l/m 0 min 0 min 49 W/m 18,8 km/h (3 Bft)
31.10.2014 08:22 11,8 C 11,1 C 99 % 1022,6 hPa 0,0 l/m 0 min 0 min 49 W/m 12,6 km/h (3 Bft)
31.10.2014 08:24 11,8 C 11,1 C 99 % 1022,6 hPa 0,0 l/m 0 min 0 min 51 W/m 12,6 km/h (3 Bft)
31.10.2014 08:26 11,8 C 11,1 C 99 % 1022,6 hPa 0,0 l/m 0 min 0 min 51 W/m 16,7 km/h (3 Bft)
31.10.2014 08:28 11,8 C 11,1 C 99 % 1022,6 hPa 0,0 l/m 0 min 0 min 53 W/m 18,8 km/h (3 Bft)
31.10.2014 08:30 11,9 C 11,1 C 99 % 1022,6 hPa 0,0 l/m 0 min 0 min 53 W/m 12,6 km/h (3 Bft)
31.10.2014 08:32 11,9 C 11,1 C 99 % 1022,6 hPa 0,0 l/m 0 min 0 min 51 W/m 16,7 km/h (3 Bft)
31.10.2014 08:34 11,9 C 11,1 C 99 % 1022,7 hPa 0,0 l/m 0 min 0 min 51 W/m 16,7 km/h (3 Bft)
31.10.2014 08:36 11,9 C 11,1 C 99 % 1022,7 hPa 0,0 l/m 0 min 0 min 51 W/m 14,6 km/h (3 Bft)
31.10.2014 08:38 11,9 C 11,1 C 99 % 1022,6 hPa 0,0 l/m 0 min 0 min 51 W/m 10,5 km/h (2 Bft)
31.10.2014 08:40 12,0 C 11,1 C 99 % 1022,7 hPa 0,0 l/m 0 min 0 min 49 W/m 12,6 km/h (3 Bft)
31.10.2014 08:42 12,0 C 11,7 C 99 % 1022,7 hPa 0,0 l/m 0 min 0 min 48 W/m 8,4 km/h (2 Bft)
31.10.2014 08:44 12,0 C 11,7 C 99 % 1022,7 hPa 0,0 l/m 0 min 0 min 47 W/m 12,6 km/h (3 Bft)
31.10.2014 08:46 12,0 C 11,7 C 99 % 1022,7 hPa 0,0 l/m 0 min 0 min 47 W/m 14,6 km/h (3 Bft)
31.10.2014 08:48 12,1 C 11,7 C 99 % 1022,7 hPa 0,0 l/m 0 min 0 min 48 W/m 16,7 km/h (3 Bft)
31.10.2014 08:50 12,1 C 11,7 C 99 % 1022,7 hPa 0,0 l/m 0 min 0 min 50 W/m 18,8 km/h (3 Bft)
31.10.2014 08:52 12,1 C 11,7 C 99 % 1022,8 hPa 0,0 l/m 0 min 0 min 53 W/m 12,6 km/h (3 Bft)
31.10.2014 08:54 12,1 C 11,7 C 99 % 1022,7 hPa 0,0 l/m 0 min 0 min 54 W/m 12,6 km/h (3 Bft)
31.10.2014 08:56 12,1 C 11,7 C 99 % 1022,6 hPa 0,0 l/m 0 min 0 min 56 W/m 14,6 km/h (3 Bft)
31.10.2014 08:58 12,1 C 11,7 C 99 % 1022,7 hPa 0,0 l/m 0 min 0 min 58 W/m 14,6 km/h (3 Bft)
31.10.2014 09:00 12,2 C 11,7 C 99 % 1022,7 hPa 0,0 l/m 0 min 0 min 62 W/m 12,6 km/h (3 Bft)
31.10.2014 09:02 12,2 C 11,7 C 99 % 1022,7 hPa 0,0 l/m 0 min 0 min 64 W/m 18,8 km/h (3 Bft)
31.10.2014 09:04 12,2 C 11,7 C 99 % 1022,6 hPa 0,0 l/m 0 min 0 min 67 W/m 14,6 km/h (3 Bft)
31.10.2014 09:06 12,2 C 11,7 C 99 % 1022,7 hPa 0,0 l/m 0 min 0 min 68 W/m 18,8 km/h (3 Bft)
31.10.2014 09:08 12,2 C 11,7 C 99 % 1022,7 hPa 0,0 l/m 0 min 0 min 70 W/m 12,6 km/h (3 Bft)
31.10.2014 09:10 12,3 C 11,7 C 99 % 1022,7 hPa 0,0 l/m 0 min 0 min 71 W/m 12,6 km/h (3 Bft)
31.10.2014 09:12 12,3 C 11,7 C 99 % 1022,8 hPa 0,0 l/m 0 min 0 min 74 W/m 12,6 km/h (3 Bft)
31.10.2014 09:14 12,3 C 12,2 C 99 % 1022,7 hPa 0,0 l/m 0 min 0 min 79 W/m 10,5 km/h (2 Bft)
31.10.2014 09:16 12,3 C 12,2 C 99 % 1022,8 hPa 0,0 l/m 0 min 0 min 84 W/m 14,6 km/h (3 Bft)
31.10.2014 09:18 12,4 C 12,2 C 99 % 1022,8 hPa 0,0 l/m 0 min 0 min 90 W/m 16,7 km/h (3 Bft)
31.10.2014 09:20 12,4 C 12,2 C 99 % 1022,8 hPa 0,0 l/m 0 min 0 min 95 W/m 12,6 km/h (3 Bft)
31.10.2014 09:22 12,4 C 12,2 C 99 % 1022,9 hPa 0,0 l/m 0 min 0 min 99 W/m 12,6 km/h (3 Bft)
31.10.2014 09:24 12,4 C 12,2 C 99 % 1022,9 hPa 0,0 l/m 0 min 0 min 103 W/m 12,6 km/h (3 Bft)
31.10.2014 09:26 12,5 C 12,2 C 99 % 1022,9 hPa 0,0 l/m 0 min 0 min 105 W/m 10,5 km/h (2 Bft)
31.10.2014 09:28 12,5 C 12,2 C 99 % 1022,9 hPa 0,0 l/m 0 min 0 min 108 W/m 10,5 km/h (2 Bft)
31.10.2014 09:30 12,6 C 12,2 C 99 % 1022,9 hPa 0,0 l/m 0 min 0 min 113 W/m 8,4 km/h (2 Bft)
31.10.2014 09:32 12,6 C 12,2 C 99 % 1022,9 hPa 0,0 l/m 0 min 0 min 118 W/m 10,5 km/h (2 Bft)
31.10.2014 09:34 12,6 C 12,2 C 99 % 1022,9 hPa 0,0 l/m 0 min 0 min 124 W/m 10,5 km/h (2 Bft)
31.10.2014 09:36 12,7 C 12,2 C 99 % 1022,9 hPa 0,0 l/m 0 min 0 min 129 W/m 16,7 km/h (3 Bft)
31.10.2014 09:38 12,7 C 12,2 C 99 % 1022,9 hPa 0,0 l/m 0 min 0 min 134 W/m 12,6 km/h (3 Bft)
31.10.2014 09:40 12,7 C 12,2 C 99 % 1022,9 hPa 0,0 l/m 0 min 0 min 138 W/m 14,6 km/h (3 Bft)
31.10.2014 09:42 12,8 C 12,8 C 99 % 1022,9 hPa 0,0 l/m 0 min 0 min 154 W/m 10,5 km/h (2 Bft)
31.10.2014 09:44 12,8 C 12,8 C 99 % 1022,9 hPa 0,0 l/m 0 min 0 min 158 W/m 8,4 km/h (2 Bft)
31.10.2014 09:46 12,8 C 12,8 C 99 % 1022,9 hPa 0,0 l/m 0 min 0 min 160 W/m 18,8 km/h (3 Bft)
31.10.2014 09:48 12,9 C 12,8 C 99 % 1022,9 hPa 0,0 l/m 2 min 0 min 182 W/m 10,5 km/h (2 Bft)
31.10.2014 09:50 12,9 C 12,8 C 99 % 1022,9 hPa 0,0 l/m 2 min 0 min 199 W/m 16,7 km/h (3 Bft)
31.10.2014 09:52 12,9 C 12,8 C 99 % 1022,9 hPa 0,0 l/m 2 min 0 min 188 W/m 14,6 km/h (3 Bft)
31.10.2014 09:54 13,0 C 12,8 C 99 % 1022,9 hPa 0,0 l/m 2 min 0 min 218 W/m 16,7 km/h (3 Bft)
31.10.2014 09:56 13,1 C 12,8 C 99 % 1022,9 hPa 0,0 l/m 2 min 0 min 207 W/m 16,7 km/h (3 Bft)
31.10.2014 09:58 13,1 C 12,8 C 99 % 1022,8 hPa 0,0 l/m 2 min 0 min 220 W/m 14,6 km/h (3 Bft)
31.10.2014 10:00 13,2 C 12,8 C 99 % 1022,9 hPa 0,0 l/m 2 min 0 min 229 W/m 14,6 km/h (3 Bft)
31.10.2014 10:02 13,2 C 13,3 C 99 % 1022,9 hPa 0,0 l/m 2 min 0 min 246 W/m 14,6 km/h (3 Bft)
31.10.2014 10:04 13,3 C 13,3 C 99 % 1022,9 hPa 0,0 l/m 2 min 0 min 273 W/m 14,6 km/h (3 Bft)
31.10.2014 10:06 13,3 C 13,3 C 99 % 1023,0 hPa 0,0 l/m 2 min 0 min 287 W/m 18,8 km/h (3 Bft)
31.10.2014 10:08 13,4 C 13,3 C 99 % 1023,0 hPa 0,0 l/m 2 min 0 min 258 W/m 16,7 km/h (3 Bft)
31.10.2014 10:10 13,5 C 13,3 C 99 % 1022,9 hPa 0,0 l/m 2 min 0 min 213 W/m 14,6 km/h (3 Bft)
31.10.2014 10:12 13,6 C 13,3 C 99 % 1022,9 hPa 0,0 l/m 2 min 0 min 208 W/m 16,7 km/h (3 Bft)
31.10.2014 10:14 13,6 C 13,3 C 99 % 1022,9 hPa 0,0 l/m 2 min 0 min 236 W/m 14,6 km/h (3 Bft)
31.10.2014 10:16 13,7 C 13,3 C 99 % 1022,9 hPa 0,0 l/m 2 min 0 min 283 W/m 12,6 km/h (3 Bft)
31.10.2014 10:18 13,7 C 13,3 C 99 % 1023,0 hPa 0,0 l/m 2 min 0 min 289 W/m 20,9 km/h (4 Bft)
31.10.2014 10:20 13,8 C 13,3 C 99 % 1022,9 hPa 0,0 l/m 2 min 0 min 279 W/m 16,7 km/h (3 Bft)
31.10.2014 10:22 13,9 C 13,3 C 99 % 1023,0 hPa 0,0 l/m 2 min 0 min 286 W/m 20,9 km/h (4 Bft)
31.10.2014 10:24 13,9 C 13,3 C 99 % 1023,0 hPa 0,0 l/m 2 min 0 min 285 W/m 14,6 km/h (3 Bft)
31.10.2014 10:26 14,1 C 13,9 C 99 % 1023,0 hPa 0,0 l/m 2 min 0 min 279 W/m 12,6 km/h (3 Bft)
31.10.2014 10:28 14,2 C 13,9 C 98 % 1023,0 hPa 0,0 l/m 2 min 0 min 282 W/m 12,6 km/h (3 Bft)
31.10.2014 10:30 14,2 C 13,9 C 99 % 1023,0 hPa 0,0 l/m 2 min 0 min 289 W/m 16,7 km/h (3 Bft)
31.10.2014 10:32 14,2 C 13,9 C 99 % 1023,0 hPa 0,0 l/m 2 min 0 min 296 W/m 14,6 km/h (3 Bft)
31.10.2014 10:34 14,2 C 13,9 C 98 % 1023,0 hPa 0,0 l/m 2 min 0 min 298 W/m 16,7 km/h (3 Bft)
31.10.2014 10:36 14,3 C 13,9 C 98 % 1022,9 hPa 0,0 l/m 2 min 0 min 303 W/m 23,0 km/h (4 Bft)
31.10.2014 10:38 14,4 C 13,9 C 98 % 1022,9 hPa 0,0 l/m 2 min 0 min 299 W/m 14,6 km/h (3 Bft)
31.10.2014 10:40 14,6 C 13,9 C 98 % 1022,9 hPa 0,0 l/m 2 min 0 min 294 W/m 20,9 km/h (4 Bft)
31.10.2014 10:42 14,6 C 13,9 C 98 % 1022,9 hPa 0,0 l/m 2 min 0 min 270 W/m 23,0 km/h (4 Bft)
31.10.2014 10:44 14,7 C 13,9 C 98 % 1022,9 hPa 0,0 l/m 2 min 0 min 251 W/m 16,7 km/h (3 Bft)
31.10.2014 10:46 14,8 C 13,9 C 97 % 1022,9 hPa 0,0 l/m 2 min 0 min 242 W/m 14,6 km/h (3 Bft)
31.10.2014 10:48 14,8 C 13,9 C 97 % 1023,0 hPa 0,0 l/m 2 min 0 min 231 W/m 12,6 km/h (3 Bft)
31.10.2014 10:50 14,9 C 13,9 C 97 % 1023,0 hPa 0,0 l/m 2 min 0 min 243 W/m 23,0 km/h (4 Bft)
31.10.2014 10:52 14,9 C 13,9 C 97 % 1022,9 hPa 0,0 l/m 2 min 0 min 258 W/m 18,8 km/h (3 Bft)
31.10.2014 10:54 15,0 C 13,9 C 96 % 1023,0 hPa 0,0 l/m 2 min 0 min 265 W/m 16,7 km/h (3 Bft)
31.10.2014 10:56 15,1 C 14,4 C 96 % 1023,0 hPa 0,0 l/m 2 min 0 min 270 W/m 18,8 km/h (3 Bft)
31.10.2014 10:58 15,1 C 14,4 C 96 % 1023,0 hPa 0,0 l/m 2 min 0 min 269 W/m 16,7 km/h (3 Bft)
31.10.2014 11:00 15,2 C 14,4 C 95 % 1023,1 hPa 0,0 l/m 2 min 0 min 273 W/m 18,8 km/h (3 Bft)
31.10.2014 11:02 15,2 C 14,4 C 95 % 1023,1 hPa 0,0 l/m 2 min 0 min 286 W/m 18,8 km/h (3 Bft)
31.10.2014 11:04 15,3 C 14,4 C 95 % 1023,0 hPa 0,0 l/m 2 min 0 min 288 W/m 14,6 km/h (3 Bft)
31.10.2014 11:06 15,4 C 14,4 C 94 % 1022,9 hPa 0,0 l/m 2 min 0 min 282 W/m 18,8 km/h (3 Bft)
31.10.2014 11:08 15,4 C 14,4 C 94 % 1023,0 hPa 0,0 l/m 2 min 0 min 288 W/m 18,8 km/h (3 Bft)
31.10.2014 11:10 15,5 C 14,4 C 94 % 1023,0 hPa 0,0 l/m 2 min 0 min 286 W/m 16,7 km/h (3 Bft)
31.10.2014 11:12 15,6 C 15,0 C 93 % 1022,9 hPa 0,0 l/m 2 min 0 min 278 W/m 18,8 km/h (3 Bft)
31.10.2014 11:14 15,7 C 15,0 C 93 % 1022,9 hPa 0,0 l/m 2 min 0 min 265 W/m 16,7 km/h (3 Bft)
31.10.2014 11:16 15,7 C 15,0 C 93 % 1022,9 hPa 0,0 l/m 2 min 0 min 282 W/m 23,0 km/h (4 Bft)
31.10.2014 11:18 15,8 C 15,0 C 92 % 1022,9 hPa 0,0 l/m 2 min 0 min 316 W/m 23,0 km/h (4 Bft)
31.10.2014 11:20 15,8 C 15,0 C 92 % 1022,9 hPa 0,0 l/m 2 min 0 min 330 W/m 16,7 km/h (3 Bft)
31.10.2014 11:22 15,9 C 15,0 C 91 % 1022,9 hPa 0,0 l/m 2 min 0 min 343 W/m 23,0 km/h (4 Bft)
31.10.2014 11:24 16,0 C 15,0 C 91 % 1022,9 hPa 0,0 l/m 2 min 0 min 346 W/m 20,9 km/h (4 Bft)
31.10.2014 11:26 16,1 C 15,6 C 91 % 1022,9 hPa 0,0 l/m 2 min 0 min 374 W/m 20,9 km/h (4 Bft)
31.10.2014 11:28 16,1 C 15,6 C 90 % 1022,9 hPa 0,0 l/m 2 min 0 min 356 W/m 18,8 km/h (3 Bft)
31.10.2014 11:30 16,2 C 15,6 C 90 % 1022,9 hPa 0,0 l/m 2 min 0 min 309 W/m 18,8 km/h (3 Bft)
31.10.2014 11:32 16,3 C 15,6 C 90 % 1022,9 hPa 0,0 l/m 2 min 0 min 251 W/m 16,7 km/h (3 Bft)
31.10.2014 11:34 16,4 C 15,6 C 89 % 1022,9 hPa 0,0 l/m 2 min 0 min 248 W/m 20,9 km/h (4 Bft)
31.10.2014 11:36 16,4 C 15,6 C 89 % 1022,8 hPa 0,0 l/m 2 min 0 min 244 W/m 14,6 km/h (3 Bft)
31.10.2014 11:38 16,4 C 15,6 C 89 % 1022,9 hPa 0,0 l/m 2 min 0 min 242 W/m 18,8 km/h (3 Bft)
31.10.2014 11:40 16,5 C 16,1 C 89 % 1022,9 hPa 0,0 l/m 2 min 0 min 244 W/m 12,6 km/h (3 Bft)
31.10.2014 11:42 16,6 C 15,6 C 88 % 1022,9 hPa 0,0 l/m 2 min 0 min 246 W/m 25,1 km/h (4 Bft)
31.10.2014 11:44 16,6 C 15,6 C 88 % 1022,8 hPa 0,0 l/m 2 min 0 min 248 W/m 16,7 km/h (3 Bft)
31.10.2014 11:46 16,6 C 16,1 C 88 % 1022,9 hPa 0,0 l/m 2 min 0 min 245 W/m 14,6 km/h (3 Bft)
31.10.2014 11:48 16,7 C 16,1 C 88 % 1022,9 hPa 0,0 l/m 2 min 0 min 252 W/m 16,7 km/h (3 Bft)
31.10.2014 11:50 16,7 C 16,1 C 88 % 1022,9 hPa 0,0 l/m 2 min 0 min 237 W/m 14,6 km/h (3 Bft)
31.10.2014 11:52 16,7 C 16,1 C 87 % 1022,9 hPa 0,0 l/m 0 min 0 min 219 W/m 16,7 km/h (3 Bft)
31.10.2014 11:54 16,7 C 16,1 C 87 % 1022,8 hPa 0,0 l/m 0 min 0 min 210 W/m 12,6 km/h (3 Bft)
31.10.2014 11:56 16,7 C 16,1 C 87 % 1022,9 hPa 0,0 l/m 0 min 0 min 204 W/m 16,7 km/h (3 Bft)
31.10.2014 11:58 16,8 C 15,6 C 87 % 1022,8 hPa 0,0 l/m 0 min 0 min 198 W/m 25,1 km/h (4 Bft)
31.10.2014 12:00 16,8 C 15,6 C 87 % 1022,8 hPa 0,0 l/m 0 min 0 min 214 W/m 18,8 km/h (3 Bft)
31.10.2014 12:02 16,8 C 15,6 C 87 % 1022,8 hPa 0,0 l/m 2 min 0 min 249 W/m 14,6 km/h (3 Bft)
31.10.2014 12:06 16,8 C 16,1 C 87 % 1022,7 hPa 0,0 l/m 2 min 0 min 253 W/m 16,7 km/h (3 Bft)
31.10.2014 12:08 16,9 C 16,1 C 87 % 1022,7 hPa 0,0 l/m 2 min 0 min 264 W/m 16,7 km/h (3 Bft)
31.10.2014 12:10 16,9 C 16,1 C 87 % 1022,7 hPa 0,0 l/m 2 min 0 min 307 W/m 16,7 km/h (3 Bft)
31.10.2014 12:12 16,9 C 16,1 C 87 % 1022,7 hPa 0,0 l/m 2 min 0 min 338 W/m 16,7 km/h (3 Bft)
31.10.2014 12:14 17,0 C 16,1 C 87 % 1022,7 hPa 0,0 l/m 2 min 0 min 273 W/m 10,5 km/h (2 Bft)
31.10.2014 12:16 17,0 C 16,1 C 87 % 1022,6 hPa 0,0 l/m 2 min 0 min 232 W/m 16,7 km/h (3 Bft)
31.10.2014 12:18 17,1 C 16,1 C 87 % 1022,6 hPa 0,0 l/m 0 min 0 min 223 W/m 18,8 km/h (3 Bft)
31.10.2014 12:20 17,1 C 16,1 C 87 % 1022,6 hPa 0,0 l/m 2 min 0 min 245 W/m 12,6 km/h (3 Bft)
31.10.2014 12:22 17,1 C 16,7 C 87 % 1022,6 hPa 0,0 l/m 2 min 0 min 282 W/m 14,6 km/h (3 Bft)
31.10.2014 12:24 17,2 C 16,7 C 87 % 1022,5 hPa 0,0 l/m 2 min 0 min 271 W/m 16,7 km/h (3 Bft)
31.10.2014 12:26 17,2 C 16,7 C 87 % 1022,6 hPa 0,0 l/m 2 min 0 min 300 W/m 12,6 km/h (3 Bft)
31.10.2014 12:28 17,3 C 16,7 C 87 % 1022,6 hPa 0,0 l/m 2 min 0 min 293 W/m 18,8 km/h (3 Bft)
31.10.2014 12:30 17,3 C 16,7 C 86 % 1022,6 hPa 0,0 l/m 2 min 0 min 283 W/m 16,7 km/h (3 Bft)
31.10.2014 12:32 17,3 C 16,7 C 86 % 1022,5 hPa 0,0 l/m 2 min 0 min 256 W/m 16,7 km/h (3 Bft)
31.10.2014 12:34 17,4 C 16,7 C 86 % 1022,5 hPa 0,0 l/m 2 min 0 min 232 W/m 14,6 km/h (3 Bft)
31.10.2014 12:36 17,4 C 16,7 C 86 % 1022,5 hPa 0,0 l/m 0 min 0 min 227 W/m 14,6 km/h (3 Bft)
31.10.2014 12:38 17,4 C 16,7 C 86 % 1022,4 hPa 0,0 l/m 0 min 0 min 224 W/m 14,6 km/h (3 Bft)
31.10.2014 12:40 17,5 C 16,7 C 86 % 1022,4 hPa 0,0 l/m 0 min 0 min 216 W/m 20,9 km/h (4 Bft)
31.10.2014 12:42 17,5 C 16,1 C 85 % 1022,4 hPa 0,0 l/m 0 min 0 min 218 W/m 14,6 km/h (3 Bft)
31.10.2014 12:44 17,5 C 16,1 C 85 % 1022,4 hPa 0,0 l/m 0 min 0 min 226 W/m 20,9 km/h (4 Bft)
31.10.2014 12:46 17,5 C 16,1 C 85 % 1022,4 hPa 0,0 l/m 2 min 0 min 240 W/m 16,7 km/h (3 Bft)
31.10.2014 12:48 17,5 C 16,1 C 85 % 1022,5 hPa 0,0 l/m 2 min 0 min 258 W/m 16,7 km/h (3 Bft)
31.10.2014 12:50 17,6 C 16,1 C 85 % 1022,5 hPa 0,0 l/m 2 min 0 min 248 W/m 18,8 km/h (3 Bft)
31.10.2014 12:52 17,6 C 16,1 C 85 % 1022,5 hPa 0,0 l/m 2 min 0 min 242 W/m 16,7 km/h (3 Bft)
31.10.2014 12:54 17,6 C 16,1 C 85 % 1022,4 hPa 0,0 l/m 2 min 0 min 249 W/m 18,8 km/h (3 Bft)
31.10.2014 12:56 17,6 C 16,1 C 85 % 1022,4 hPa 0,0 l/m 2 min 0 min 240 W/m 16,7 km/h (3 Bft)
31.10.2014 12:58 17,6 C 16,1 C 85 % 1022,4 hPa 0,0 l/m 2 min 0 min 232 W/m 16,7 km/h (3 Bft)
31.10.2014 13:00 17,6 C 16,7 C 85 % 1022,4 hPa 0,0 l/m 2 min 0 min 234 W/m 20,9 km/h (4 Bft)
31.10.2014 13:02 17,7 C 16,7 C 85 % 1022,3 hPa 0,0 l/m 2 min 0 min 261 W/m 23,0 km/h (4 Bft)
31.10.2014 13:04 17,7 C 16,7 C 85 % 1022,2 hPa 0,0 l/m 2 min 0 min 263 W/m 20,9 km/h (4 Bft)
31.10.2014 13:06 17,7 C 16,7 C 85 % 1022,2 hPa 0,0 l/m 2 min 0 min 269 W/m 20,9 km/h (4 Bft)
31.10.2014 13:08 17,7 C 16,7 C 85 % 1022,2 hPa 0,0 l/m 2 min 0 min 271 W/m 20,9 km/h (4 Bft)
31.10.2014 13:10 17,7 C 16,7 C 85 % 1022,2 hPa 0,0 l/m 2 min 0 min 259 W/m 18,8 km/h (3 Bft)
31.10.2014 13:12 17,7 C 16,7 C 85 % 1022,2 hPa 0,0 l/m 2 min 0 min 268 W/m 14,6 km/h (3 Bft)
31.10.2014 13:14 17,8 C 16,7 C 85 % 1022,1 hPa 0,0 l/m 2 min 0 min 289 W/m 20,9 km/h (4 Bft)
31.10.2014 13:16 17,8 C 16,7 C 85 % 1022,1 hPa 0,0 l/m 2 min 0 min 337 W/m 14,6 km/h (3 Bft)
31.10.2014 13:18 17,8 C 16,7 C 85 % 1022,1 hPa 0,0 l/m 2 min 0 min 381 W/m 14,6 km/h (3 Bft)
31.10.2014 13:20 17,9 C 17,2 C 85 % 1022,1 hPa 0,0 l/m 2 min 0 min 358 W/m 12,6 km/h (3 Bft)
31.10.2014 13:22 18,0 C 17,2 C 85 % 1022,1 hPa 0,0 l/m 2 min 0 min 314 W/m 10,5 km/h (2 Bft)
31.10.2014 13:24 18,1 C 17,2 C 85 % 1022,0 hPa 0,0 l/m 2 min 0 min 299 W/m 18,8 km/h (3 Bft)
31.10.2014 13:26 18,1 C 17,2 C 85 % 1022,0 hPa 0,0 l/m 2 min 0 min 271 W/m 14,6 km/h (3 Bft)
31.10.2014 13:28 18,2 C 17,2 C 85 % 1022,0 hPa 0,0 l/m 2 min 0 min 289 W/m 16,7 km/h (3 Bft)
31.10.2014 13:30 18,2 C 17,2 C 85 % 1022,0 hPa 0,0 l/m 2 min 0 min 318 W/m 20,9 km/h (4 Bft)
31.10.2014 13:32 18,3 C 17,2 C 84 % 1021,9 hPa 0,0 l/m 2 min 0 min 280 W/m 18,8 km/h (3 Bft)
31.10.2014 13:34 18,3 C 17,2 C 84 % 1021,9 hPa 0,0 l/m 2 min 0 min 254 W/m 14,6 km/h (3 Bft)
31.10.2014 13:36 18,4 C 17,2 C 84 % 1021,9 hPa 0,0 l/m 2 min 0 min 236 W/m 14,6 km/h (3 Bft)
31.10.2014 13:38 18,4 C 17,2 C 84 % 1021,8 hPa 0,0 l/m 2 min 0 min 242 W/m 16,7 km/h (3 Bft)
31.10.2014 13:40 18,4 C 17,2 C 84 % 1021,8 hPa 0,0 l/m 2 min 0 min 249 W/m 18,8 km/h (3 Bft)
31.10.2014 13:42 18,4 C 17,2 C 83 % 1021,8 hPa 0,0 l/m 2 min 0 min 254 W/m 14,6 km/h (3 Bft)
31.10.2014 13:44 18,5 C 17,2 C 83 % 1021,8 hPa 0,0 l/m 2 min 0 min 250 W/m 23,0 km/h (4 Bft)
31.10.2014 13:46 18,5 C 17,2 C 83 % 1021,7 hPa 0,0 l/m 2 min 0 min 260 W/m 12,6 km/h (3 Bft)
31.10.2014 13:48 18,6 C 17,2 C 84 % 1021,7 hPa 0,0 l/m 2 min 0 min 264 W/m 10,5 km/h (2 Bft)
31.10.2014 13:50 18,6 C 17,2 C 84 % 1021,7 hPa 0,0 l/m 2 min 0 min 258 W/m 12,6 km/h (3 Bft)
31.10.2014 13:52 18,6 C 17,2 C 84 % 1021,7 hPa 0,0 l/m 2 min 0 min 244 W/m 20,9 km/h (4 Bft)
31.10.2014 13:54 18,6 C 17,2 C 84 % 1021,7 hPa 0,0 l/m 2 min 0 min 232 W/m 16,7 km/h (3 Bft)
31.10.2014 13:56 18,7 C 17,2 C 83 % 1021,6 hPa 0,0 l/m 2 min 0 min 224 W/m 10,5 km/h (2 Bft)
31.10.2014 13:58 18,7 C 17,2 C 83 % 1021,6 hPa 0,0 l/m 2 min 0 min 214 W/m 18,8 km/h (3 Bft)
31.10.2014 14:00 18,7 C 17,2 C 83 % 1021,6 hPa 0,0 l/m 2 min 0 min 214 W/m 16,7 km/h (3 Bft)
31.10.2014 14:02 18,7 C 17,2 C 83 % 1021,6 hPa 0,0 l/m 2 min 0 min 212 W/m 14,6 km/h (3 Bft)
31.10.2014 14:04 18,7 C 17,2 C 83 % 1021,6 hPa 0,0 l/m 2 min 0 min 204 W/m 12,6 km/h (3 Bft)
31.10.2014 14:06 18,7 C 17,2 C 83 % 1021,6 hPa 0,0 l/m 2 min 0 min 206 W/m 14,6 km/h (3 Bft)
31.10.2014 14:08 18,7 C 17,2 C 83 % 1021,5 hPa 0,0 l/m 2 min 0 min 198 W/m 23,0 km/h (4 Bft)
31.10.2014 14:10 18,7 C 17,2 C 82 % 1021,5 hPa 0,0 l/m 2 min 0 min 200 W/m 18,8 km/h (3 Bft)
31.10.2014 14:12 18,7 C 17,2 C 82 % 1021,4 hPa 0,0 l/m 2 min 0 min 199 W/m 18,8 km/h (3 Bft)
31.10.2014 14:14 18,7 C 17,2 C 82 % 1021,4 hPa 0,0 l/m 2 min 0 min 192 W/m 16,7 km/h (3 Bft)
31.10.2014 14:16 18,7 C 17,2 C 82 % 1021,4 hPa 0,0 l/m 2 min 0 min 188 W/m 14,6 km/h (3 Bft)
31.10.2014 14:18 18,7 C 17,2 C 82 % 1021,4 hPa 0,0 l/m 0 min 0 min 184 W/m 12,6 km/h (3 Bft)
31.10.2014 14:20 18,7 C 17,2 C 82 % 1021,4 hPa 0,0 l/m 0 min 0 min 180 W/m 18,8 km/h (3 Bft)
31.10.2014 14:22 18,6 C 17,2 C 82 % 1021,5 hPa 0,0 l/m 0 min 0 min 175 W/m 16,7 km/h (3 Bft)
31.10.2014 14:24 18,6 C 17,2 C 83 % 1021,4 hPa 0,0 l/m 0 min 0 min 171 W/m 14,6 km/h (3 Bft)
31.10.2014 14:26 18,6 C 17,2 C 83 % 1021,4 hPa 0,0 l/m 0 min 0 min 169 W/m 10,5 km/h (2 Bft)
31.10.2014 14:28 18,6 C 17,2 C 83 % 1021,4 hPa 0,0 l/m 0 min 0 min 167 W/m 6,3 km/h (2 Bft)
31.10.2014 14:30 18,6 C 17,2 C 83 % 1021,4 hPa 0,0 l/m 0 min 0 min 166 W/m 8,4 km/h (2 Bft)
31.10.2014 14:32 18,6 C 17,2 C 83 % 1021,4 hPa 0,0 l/m 0 min 0 min 161 W/m 8,4 km/h (2 Bft)
31.10.2014 14:34 18,6 C 17,2 C 83 % 1021,3 hPa 0,0 l/m 0 min 0 min 156 W/m 12,6 km/h (3 Bft)
31.10.2014 14:36 18,6 C 17,2 C 83 % 1021,4 hPa 0,0 l/m 0 min 0 min 153 W/m 12,6 km/h (3 Bft)
31.10.2014 14:38 18,6 C 17,2 C 83 % 1021,4 hPa 0,0 l/m 0 min 0 min 150 W/m 14,6 km/h (3 Bft)
31.10.2014 14:40 18,5 C 17,2 C 83 % 1021,4 hPa 0,0 l/m 0 min 0 min 148 W/m 12,6 km/h (3 Bft)
31.10.2014 14:42 18,5 C 16,7 C 83 % 1021,4 hPa 0,0 l/m 0 min 0 min 145 W/m 12,6 km/h (3 Bft)
31.10.2014 14:44 18,4 C 16,7 C 83 % 1021,5 hPa 0,0 l/m 0 min 0 min 142 W/m 14,6 km/h (3 Bft)
31.10.2014 14:46 18,4 C 16,7 C 83 % 1021,4 hPa 0,0 l/m 0 min 0 min 141 W/m 16,7 km/h (3 Bft)
31.10.2014 14:48 18,4 C 16,7 C 83 % 1021,4 hPa 0,0 l/m 0 min 0 min 140 W/m 12,6 km/h (3 Bft)
31.10.2014 14:50 18,4 C 16,7 C 83 % 1021,5 hPa 0,0 l/m 0 min 0 min 137 W/m 14,6 km/h (3 Bft)
31.10.2014 14:52 18,4 C 16,7 C 83 % 1021,4 hPa 0,0 l/m 0 min 0 min 134 W/m 16,7 km/h (3 Bft)
31.10.2014 14:54 18,4 C 16,7 C 83 % 1021,4 hPa 0,0 l/m 0 min 0 min 132 W/m 10,5 km/h (2 Bft)
31.10.2014 14:56 18,4 C 16,7 C 83 % 1021,5 hPa 0,0 l/m 0 min 0 min 128 W/m 12,6 km/h (3 Bft)
31.10.2014 14:58 18,4 C 16,7 C 83 % 1021,5 hPa 0,0 l/m 0 min 0 min 127 W/m 10,5 km/h (2 Bft)
31.10.2014 15:00 18,3 C 16,7 C 83 % 1021,5 hPa 0,0 l/m 0 min 0 min 125 W/m 20,9 km/h (4 Bft)
31.10.2014 15:02 18,3 C 16,7 C 83 % 1021,5 hPa 0,0 l/m 0 min 0 min 124 W/m 10,5 km/h (2 Bft)
31.10.2014 15:04 18,3 C 16,7 C 83 % 1021,5 hPa 0,0 l/m 0 min 0 min 120 W/m 16,7 km/h (3 Bft)
31.10.2014 15:06 18,3 C 16,7 C 83 % 1021,5 hPa 0,0 l/m 0 min 0 min 120 W/m 12,6 km/h (3 Bft)
31.10.2014 15:08 18,2 C 16,7 C 84 % 1021,5 hPa 0,0 l/m 0 min 0 min 118 W/m 10,5 km/h (2 Bft)
31.10.2014 15:10 18,2 C 16,7 C 84 % 1021,5 hPa 0,0 l/m 0 min 0 min 117 W/m 14,6 km/h (3 Bft)
31.10.2014 15:12 18,2 C 16,7 C 84 % 1021,5 hPa 0,0 l/m 0 min 0 min 115 W/m 12,6 km/h (3 Bft)
31.10.2014 15:14 18,2 C 16,7 C 84 % 1021,5 hPa 0,0 l/m 0 min 0 min 114 W/m 12,6 km/h (3 Bft)
31.10.2014 15:16 18,2 C 16,7 C 84 % 1021,5 hPa 0,0 l/m 0 min 0 min 113 W/m 16,7 km/h (3 Bft)
31.10.2014 15:18 18,2 C 16,7 C 84 % 1021,5 hPa 0,0 l/m 0 min 0 min 113 W/m 16,7 km/h (3 Bft)
31.10.2014 15:20 18,1 C 16,7 C 84 % 1021,6 hPa 0,0 l/m 0 min 0 min 111 W/m 16,7 km/h (3 Bft)
31.10.2014 15:22 18,1 C 16,7 C 84 % 1021,5 hPa 0,0 l/m 0 min 0 min 111 W/m 18,8 km/h (3 Bft)
31.10.2014 15:24 18,1 C 16,7 C 84 % 1021,4 hPa 0,0 l/m 0 min 0 min 110 W/m 16,7 km/h (3 Bft)
31.10.2014 15:26 18,1 C 16,7 C 84 % 1021,5 hPa 0,0 l/m 0 min 0 min 109 W/m 12,6 km/h (3 Bft)
31.10.2014 15:28 18,1 C 16,7 C 84 % 1021,6 hPa 0,0 l/m 0 min 0 min 107 W/m 10,5 km/h (2 Bft)
31.10.2014 15:30 18,1 C 16,7 C 84 % 1021,5 hPa 0,0 l/m 0 min 0 min 105 W/m 10,5 km/h (2 Bft)
31.10.2014 15:32 18,0 C 16,7 C 84 % 1021,4 hPa 0,0 l/m 0 min 0 min 104 W/m 14,6 km/h (3 Bft)
31.10.2014 15:34 18,0 C 16,7 C 85 % 1021,5 hPa 0,0 l/m 0 min 0 min 102 W/m 14,6 km/h (3 Bft)
31.10.2014 15:36 18,0 C 16,7 C 85 % 1021,4 hPa 0,0 l/m 0 min 0 min 101 W/m 12,6 km/h (3 Bft)
31.10.2014 15:38 18,0 C 16,1 C 85 % 1021,5 hPa 0,0 l/m 0 min 0 min 99 W/m 12,6 km/h (3 Bft)
31.10.2014 15:40 18,0 C 16,1 C 85 % 1021,5 hPa 0,0 l/m 0 min 0 min 97 W/m 14,6 km/h (3 Bft)
31.10.2014 15:42 17,9 C 16,1 C 85 % 1021,5 hPa 0,0 l/m 0 min 0 min 95 W/m 16,7 km/h (3 Bft)
31.10.2014 15:44 17,9 C 16,1 C 85 % 1021,5 hPa 0,0 l/m 0 min 0 min 91 W/m 12,6 km/h (3 Bft)
31.10.2014 15:46 17,9 C 16,1 C 85 % 1021,4 hPa 0,0 l/m 0 min 0 min 90 W/m 14,6 km/h (3 Bft)
31.10.2014 15:48 17,9 C 16,1 C 85 % 1021,5 hPa 0,0 l/m 0 min 0 min 87 W/m 16,7 km/h (3 Bft)
31.10.2014 15:50 17,9 C 16,1 C 85 % 1021,4 hPa 0,0 l/m 0 min 0 min 86 W/m 18,8 km/h (3 Bft)
31.10.2014 15:52 17,8 C 16,1 C 85 % 1021,4 hPa 0,0 l/m 0 min 0 min 85 W/m 14,6 km/h (3 Bft)
31.10.2014 15:54 17,8 C 16,1 C 85 % 1021,5 hPa 0,0 l/m 0 min 0 min 84 W/m 14,6 km/h (3 Bft)
31.10.2014 15:56 17,8 C 16,1 C 85 % 1021,5 hPa 0,0 l/m 0 min 0 min 82 W/m 12,6 km/h (3 Bft)
31.10.2014 15:58 17,8 C 16,1 C 85 % 1021,5 hPa 0,0 l/m 0 min 0 min 78 W/m 18,8 km/h (3 Bft)
31.10.2014 16:00 17,7 C 16,1 C 85 % 1021,4 hPa 0,0 l/m 0 min 0 min 77 W/m 16,7 km/h (3 Bft)
31.10.2014 16:02 17,7 C 16,1 C 85 % 1021,4 hPa 0,0 l/m 0 min 0 min 75 W/m 14,6 km/h (3 Bft)
31.10.2014 16:04 17,7 C 16,1 C 85 % 1021,4 hPa 0,0 l/m 0 min 0 min 74 W/m 27,2 km/h (4 Bft)
31.10.2014 16:06 17,7 C 16,1 C 85 % 1021,4 hPa 0,0 l/m 0 min 0 min 73 W/m 20,9 km/h (4 Bft)
31.10.2014 16:08 17,7 C 16,1 C 85 % 1021,4 hPa 0,0 l/m 0 min 0 min 71 W/m 14,6 km/h (3 Bft)
31.10.2014 16:10 17,7 C 16,1 C 86 % 1021,4 hPa 0,0 l/m 0 min 0 min 67 W/m 14,6 km/h (3 Bft)
31.10.2014 16:12 17,6 C 15,6 C 86 % 1021,4 hPa 0,0 l/m 0 min 0 min 63 W/m 12,6 km/h (3 Bft)
31.10.2014 16:14 17,6 C 15,6 C 86 % 1021,3 hPa 0,0 l/m 0 min 0 min 61 W/m 14,6 km/h (3 Bft)
31.10.2014 16:16 17,6 C 15,6 C 86 % 1021,3 hPa 0,0 l/m 0 min 0 min 57 W/m 14,6 km/h (3 Bft)
31.10.2014 16:18 17,6 C 15,6 C 86 % 1021,3 hPa 0,0 l/m 0 min 0 min 54 W/m 14,6 km/h (3 Bft)
31.10.2014 16:20 17,6 C 15,6 C 86 % 1021,3 hPa 0,0 l/m 0 min 0 min 52 W/m 16,7 km/h (3 Bft)
31.10.2014 16:22 17,5 C 15,6 C 86 % 1021,3 hPa 0,0 l/m 0 min 0 min 49 W/m 16,7 km/h (3 Bft)
31.10.2014 16:24 17,5 C 15,6 C 86 % 1021,3 hPa 0,0 l/m 0 min 0 min 46 W/m 10,5 km/h (2 Bft)
31.10.2014 16:26 17,4 C 15,6 C 86 % 1021,3 hPa 0,0 l/m 0 min 0 min 44 W/m 14,6 km/h (3 Bft)
31.10.2014 16:28 17,4 C 15,6 C 86 % 1021,3 hPa 0,0 l/m 0 min 0 min 42 W/m 18,8 km/h (3 Bft)
31.10.2014 16:30 17,4 C 15,6 C 86 % 1021,3 hPa 0,0 l/m 0 min 0 min 40 W/m 12,6 km/h (3 Bft)
31.10.2014 16:32 17,4 C 15,6 C 86 % 1021,2 hPa 0,0 l/m 0 min 0 min 39 W/m 14,6 km/h (3 Bft)
31.10.2014 16:34 17,4 C 15,6 C 86 % 1021,3 hPa 0,0 l/m 0 min 0 min 39 W/m 12,6 km/h (3 Bft)
31.10.2014 16:36 17,3 C 15,0 C 86 % 1021,3 hPa 0,0 l/m 0 min 0 min 38 W/m 12,6 km/h (3 Bft)
31.10.2014 16:38 17,3 C 15,0 C 86 % 1021,3 hPa 0,0 l/m 2 min 0 min 36 W/m 12,6 km/h (3 Bft)
31.10.2014 16:40 17,3 C 15,0 C 86 % 1021,2 hPa 0,0 l/m 2 min 0 min 34 W/m 14,6 km/h (3 Bft)
31.10.2014 16:42 17,3 C 15,0 C 86 % 1021,3 hPa 0,0 l/m 2 min 0 min 33 W/m 18,8 km/h (3 Bft)
31.10.2014 16:44 17,2 C 15,0 C 87 % 1021,2 hPa 0,0 l/m 2 min 0 min 31 W/m 12,6 km/h (3 Bft)
31.10.2014 16:46 17,2 C 15,0 C 87 % 1021,3 hPa 0,0 l/m 2 min 0 min 29 W/m 14,6 km/h (3 Bft)
31.10.2014 16:48 17,2 C 15,0 C 87 % 1021,2 hPa 0,0 l/m 2 min 0 min 27 W/m 18,8 km/h (3 Bft)
31.10.2014 16:50 17,2 C 15,0 C 87 % 1021,2 hPa 0,0 l/m 2 min 0 min 25 W/m 16,7 km/h (3 Bft)
31.10.2014 16:52 17,2 C 15,0 C 87 % 1021,2 hPa 0,0 l/m 2 min 0 min 23 W/m 12,6 km/h (3 Bft)
31.10.2014 16:54 17,1 C 15,0 C 87 % 1021,2 hPa 0,0 l/m 2 min 0 min 22 W/m 14,6 km/h (3 Bft)
31.10.2014 16:56 17,1 C 15,0 C 87 % 1021,2 hPa 0,0 l/m 2 min 0 min 21 W/m 16,7 km/h (3 Bft)
31.10.2014 16:58 17,1 C 15,0 C 87 % 1021,2 hPa 0,0 l/m 2 min 0 min 19 W/m 14,6 km/h (3 Bft)
31.10.2014 17:00 17,1 C 15,0 C 87 % 1021,2 hPa 0,0 l/m 0 min 0 min 17 W/m 10,5 km/h (2 Bft)
31.10.2014 17:02 17,0 C 15,0 C 87 % 1021,2 hPa 0,0 l/m 0 min 0 min 12 W/m 14,6 km/h (3 Bft)
31.10.2014 17:04 16,9 C 15,0 C 87 % 1021,2 hPa 0,0 l/m 0 min 0 min 10 W/m 16,7 km/h (3 Bft)
31.10.2014 17:06 16,9 C 15,0 C 87 % 1021,2 hPa 0,0 l/m 0 min 0 min 9 W/m 14,6 km/h (3 Bft)
31.10.2014 17:08 16,9 C 15,0 C 87 % 1021,2 hPa 0,0 l/m 0 min 0 min 8 W/m 16,7 km/h (3 Bft)
31.10.2014 17:10 16,9 C 14,4 C 87 % 1021,2 hPa 0,0 l/m 0 min 0 min 7 W/m 18,8 km/h (3 Bft)
31.10.2014 17:12 16,8 C 14,4 C 87 % 1021,2 hPa 0,0 l/m 0 min 0 min 7 W/m 12,6 km/h (3 Bft)
31.10.2014 17:14 16,8 C 14,4 C 87 % 1021,2 hPa 0,0 l/m 0 min 0 min 7 W/m 12,6 km/h (3 Bft)
31.10.2014 17:16 16,8 C 14,4 C 88 % 1021,2 hPa 0,0 l/m 0 min 0 min 7 W/m 14,6 km/h (3 Bft)
31.10.2014 17:18 16,7 C 14,4 C 87 % 1021,3 hPa 0,0 l/m 0 min 0 min 5 W/m 14,6 km/h (3 Bft)
31.10.2014 17:20 16,7 C 14,4 C 87 % 1021,2 hPa 0,0 l/m 0 min 0 min 5 W/m 12,6 km/h (3 Bft)
31.10.2014 17:22 16,7 C 14,4 C 88 % 1021,3 hPa 0,0 l/m 0 min 0 min 1 W/m 8,4 km/h (2 Bft)
31.10.2014 17:24 16,7 C 14,4 C 88 % 1021,3 hPa 0,0 l/m 0 min 0 min 0 W/m 16,7 km/h (3 Bft)
31.10.2014 17:26 16,6 C 14,4 C 88 % 1021,3 hPa 0,0 l/m 0 min 0 min 0 W/m 12,6 km/h (3 Bft)
31.10.2014 17:28 16,6 C 14,4 C 88 % 1021,3 hPa 0,0 l/m 0 min 0 min 0 W/m 12,6 km/h (3 Bft)
31.10.2014 17:30 16,6 C 14,4 C 88 % 1021,3 hPa 0,0 l/m 0 min 0 min 0 W/m 14,6 km/h (3 Bft)
31.10.2014 17:32 16,6 C 14,4 C 88 % 1021,3 hPa 0,0 l/m 0 min 0 min 0 W/m 10,5 km/h (2 Bft)
31.10.2014 17:34 16,5 C 13,9 C 88 % 1021,3 hPa 0,0 l/m 0 min 0 min 0 W/m 14,6 km/h (3 Bft)
31.10.2014 17:36 16,4 C 13,9 C 88 % 1021,3 hPa 0,0 l/m 0 min 0 min 0 W/m 16,7 km/h (3 Bft)
31.10.2014 17:38 16,4 C 13,9 C 88 % 1021,3 hPa 0,0 l/m 0 min 0 min 0 W/m 14,6 km/h (3 Bft)
31.10.2014 17:40 16,4 C 14,4 C 88 % 1021,3 hPa 0,0 l/m 0 min 0 min 0 W/m 16,7 km/h (3 Bft)
31.10.2014 17:42 16,4 C 14,4 C 88 % 1021,3 hPa 0,0 l/m 0 min 0 min 0 W/m 16,7 km/h (3 Bft)
31.10.2014 17:44 16,3 C 13,9 C 88 % 1021,3 hPa 0,0 l/m 0 min 0 min 0 W/m 14,6 km/h (3 Bft)
31.10.2014 17:46 16,3 C 13,9 C 88 % 1021,3 hPa 0,0 l/m 0 min 0 min 0 W/m 14,6 km/h (3 Bft)
31.10.2014 17:48 16,3 C 14,4 C 88 % 1021,3 hPa 0,0 l/m 0 min 0 min 0 W/m 12,6 km/h (3 Bft)
31.10.2014 17:50 16,3 C 13,9 C 89 % 1021,3 hPa 0,0 l/m 0 min 0 min 0 W/m 10,5 km/h (2 Bft)
31.10.2014 17:52 16,2 C 13,9 C 89 % 1021,3 hPa 0,0 l/m 0 min 0 min 0 W/m 14,6 km/h (3 Bft)
31.10.2014 17:54 16,2 C 13,9 C 89 % 1021,3 hPa 0,0 l/m 0 min 0 min 0 W/m 12,6 km/h (3 Bft)
31.10.2014 17:56 16,2 C 13,9 C 89 % 1021,3 hPa 0,0 l/m 0 min 0 min 0 W/m 12,6 km/h (3 Bft)
31.10.2014 17:58 16,2 C 13,9 C 89 % 1021,3 hPa 0,0 l/m 0 min 0 min 0 W/m 12,6 km/h (3 Bft)
31.10.2014 18:00 16,2 C 13,9 C 89 % 1021,3 hPa 0,0 l/m 0 min 0 min 0 W/m 14,6 km/h (3 Bft)
31.10.2014 18:02 16,1 C 13,9 C 89 % 1021,3 hPa 0,0 l/m 0 min 0 min 0 W/m 12,6 km/h (3 Bft)
31.10.2014 18:05 16,1 C 13,9 C 89 % 1021,3 hPa 0,0 l/m 0 min 0 min 0 W/m 12,6 km/h (3 Bft)
31.10.2014 18:08 16,1 C 13,9 C 89 % 1021,3 hPa 0,0 l/m 0 min 0 min 0 W/m 14,6 km/h (3 Bft)
31.10.2014 18:10 16,1 C 13,9 C 89 % 1021,3 hPa 0,0 l/m 0 min 0 min 0 W/m 14,6 km/h (3 Bft)
31.10.2014 18:12 16,0 C 13,9 C 89 % 1021,3 hPa 0,0 l/m 0 min 0 min 0 W/m 8,4 km/h (2 Bft)
31.10.2014 18:14 16,0 C 13,9 C 89 % 1021,3 hPa 0,0 l/m 0 min 0 min 0 W/m 8,4 km/h (2 Bft)
31.10.2014 18:16 16,0 C 13,9 C 89 % 1021,3 hPa 0,0 l/m 0 min 0 min 0 W/m 14,6 km/h (3 Bft)
31.10.2014 18:18 15,9 C 13,9 C 89 % 1021,3 hPa 0,0 l/m 0 min 0 min 0 W/m 10,5 km/h (2 Bft)
31.10.2014 18:20 15,9 C 13,9 C 90 % 1021,3 hPa 0,0 l/m 0 min 0 min 0 W/m 16,7 km/h (3 Bft)
31.10.2014 18:22 15,9 C 13,9 C 90 % 1021,3 hPa 0,0 l/m 0 min 0 min 0 W/m 12,6 km/h (3 Bft)
31.10.2014 18:24 15,9 C 13,9 C 90 % 1021,3 hPa 0,0 l/m 0 min 0 min 0 W/m 12,6 km/h (3 Bft)
31.10.2014 18:26 15,8 C 13,3 C 90 % 1021,3 hPa 0,0 l/m 0 min 0 min 0 W/m 16,7 km/h (3 Bft)
31.10.2014 18:28 15,8 C 13,3 C 90 % 1021,3 hPa 0,0 l/m 0 min 0 min 0 W/m 8,4 km/h (2 Bft)
31.10.2014 18:30 15,8 C 13,3 C 90 % 1021,3 hPa 0,0 l/m 0 min 0 min 0 W/m 8,4 km/h (2 Bft)
31.10.2014 18:32 15,8 C 13,3 C 90 % 1021,3 hPa 0,0 l/m 0 min 0 min 0 W/m 10,5 km/h (2 Bft)
31.10.2014 18:34 15,7 C 13,3 C 90 % 1021,3 hPa 0,0 l/m 0 min 0 min 0 W/m 14,6 km/h (3 Bft)
31.10.2014 18:36 15,7 C 13,3 C 90 % 1021,3 hPa 0,0 l/m 0 min 0 min 0 W/m 10,5 km/h (2 Bft)
31.10.2014 18:38 15,7 C 13,3 C 90 % 1021,3 hPa 0,0 l/m 0 min 0 min 0 W/m 12,6 km/h (3 Bft)
31.10.2014 18:40 15,7 C 13,3 C 90 % 1021,3 hPa 0,0 l/m 0 min 0 min 0 W/m 10,5 km/h (2 Bft)
31.10.2014 18:42 15,6 C 13,3 C 90 % 1021,3 hPa 0,0 l/m 0 min 0 min 0 W/m 10,5 km/h (2 Bft)
31.10.2014 18:44 15,6 C 13,3 C 90 % 1021,4 hPa 0,0 l/m 0 min 0 min 0 W/m 8,4 km/h (2 Bft)
31.10.2014 18:46 15,6 C 13,3 C 90 % 1021,3 hPa 0,0 l/m 0 min 0 min 0 W/m 6,3 km/h (2 Bft)
31.10.2014 18:48 15,6 C 12,8 C 90 % 1021,3 hPa 0,0 l/m 0 min 0 min 0 W/m 10,5 km/h (2 Bft)
31.10.2014 18:50 15,5 C 12,8 C 90 % 1021,4 hPa 0,0 l/m 0 min 0 min 0 W/m 10,5 km/h (2 Bft)
31.10.2014 18:52 15,5 C 12,8 C 90 % 1021,4 hPa 0,0 l/m 0 min 0 min 0 W/m 10,5 km/h (2 Bft)
31.10.2014 18:54 15,4 C 12,8 C 91 % 1021,4 hPa 0,0 l/m 0 min 0 min 0 W/m 10,5 km/h (2 Bft)
31.10.2014 18:56 15,4 C 12,8 C 90 % 1021,4 hPa 0,0 l/m 0 min 0 min 0 W/m 10,5 km/h (2 Bft)
31.10.2014 18:58 15,4 C 12,8 C 90 % 1021,4 hPa 0,0 l/m 0 min 0 min 0 W/m 12,6 km/h (3 Bft)
31.10.2014 19:00 15,3 C 12,8 C 91 % 1021,4 hPa 0,0 l/m 0 min 0 min 0 W/m 10,5 km/h (2 Bft)
31.10.2014 19:02 15,3 C 12,8 C 91 % 1021,4 hPa 0,0 l/m 0 min 0 min 0 W/m 8,4 km/h (2 Bft)
31.10.2014 19:04 15,3 C 12,8 C 91 % 1021,4 hPa 0,0 l/m 0 min 0 min 0 W/m 10,5 km/h (2 Bft)
31.10.2014 19:06 15,3 C 12,8 C 91 % 1021,4 hPa 0,0 l/m 0 min 0 min 0 W/m 10,5 km/h (2 Bft)
31.10.2014 19:08 15,2 C 12,8 C 91 % 1021,4 hPa 0,0 l/m 0 min 0 min 0 W/m 6,3 km/h (2 Bft)
31.10.2014 19:10 15,2 C 12,8 C 91 % 1021,4 hPa 0,0 l/m 0 min 0 min 0 W/m 10,5 km/h (2 Bft)
31.10.2014 19:12 15,2 C 12,8 C 91 % 1021,4 hPa 0,0 l/m 0 min 0 min 0 W/m 10,5 km/h (2 Bft)
31.10.2014 19:14 15,1 C 12,8 C 91 % 1021,4 hPa 0,0 l/m 0 min 0 min 0 W/m 12,6 km/h (3 Bft)
31.10.2014 19:16 15,1 C 12,8 C 91 % 1021,4 hPa 0,0 l/m 0 min 0 min 0 W/m 10,5 km/h (2 Bft)
31.10.2014 19:18 15,1 C 12,8 C 91 % 1021,4 hPa 0,0 l/m 0 min 0 min 0 W/m 10,5 km/h (2 Bft)
31.10.2014 19:20 15,0 C 12,8 C 91 % 1021,4 hPa 0,0 l/m 0 min 0 min 0 W/m 10,5 km/h (2 Bft)
31.10.2014 19:22 15,0 C 12,8 C 91 % 1021,4 hPa 0,0 l/m 0 min 0 min 0 W/m 8,4 km/h (2 Bft)
31.10.2014 19:24 14,9 C 12,8 C 91 % 1021,4 hPa 0,0 l/m 0 min 0 min 0 W/m 8,4 km/h (2 Bft)
31.10.2014 19:26 14,9 C 12,8 C 92 % 1021,4 hPa 0,0 l/m 0 min 0 min 0 W/m 8,4 km/h (2 Bft)
31.10.2014 19:28 14,9 C 12,8 C 92 % 1021,4 hPa 0,0 l/m 0 min 0 min 0 W/m 10,5 km/h (2 Bft)
31.10.2014 19:30 14,9 C 12,8 C 92 % 1021,4 hPa 0,0 l/m 0 min 0 min 0 W/m 6,3 km/h (2 Bft)
31.10.2014 19:32 14,8 C 12,2 C 92 % 1021,4 hPa 0,0 l/m 0 min 0 min 0 W/m 6,3 km/h (2 Bft)
31.10.2014 19:34 14,8 C 12,2 C 92 % 1021,4 hPa 0,0 l/m 0 min 0 min 0 W/m 8,4 km/h (2 Bft)
31.10.2014 19:36 14,8 C 12,2 C 92 % 1021,4 hPa 0,0 l/m 0 min 0 min 0 W/m 8,4 km/h (2 Bft)
31.10.2014 19:38 14,8 C 12,2 C 92 % 1021,4 hPa 0,0 l/m 0 min 0 min 0 W/m 8,4 km/h (2 Bft)
31.10.2014 19:40 14,7 C 12,2 C 92 % 1021,4 hPa 0,0 l/m 0 min 0 min 0 W/m 8,4 km/h (2 Bft)
31.10.2014 19:42 14,7 C 12,2 C 92 % 1021,4 hPa 0,0 l/m 0 min 0 min 0 W/m 6,3 km/h (2 Bft)
31.10.2014 19:44 14,7 C 12,2 C 92 % 1021,3 hPa 0,0 l/m 0 min 0 min 0 W/m 12,6 km/h (3 Bft)
31.10.2014 19:46 14,7 C 12,2 C 92 % 1021,4 hPa 0,0 l/m 0 min 0 min 0 W/m 8,4 km/h (2 Bft)
31.10.2014 19:48 14,6 C 12,2 C 92 % 1021,4 hPa 0,0 l/m 0 min 0 min 0 W/m 8,4 km/h (2 Bft)
31.10.2014 19:50 14,6 C 12,2 C 92 % 1021,4 hPa 0,0 l/m 0 min 0 min 0 W/m 8,4 km/h (2 Bft)
31.10.2014 19:52 14,6 C 12,2 C 92 % 1021,4 hPa 0,0 l/m 0 min 0 min 0 W/m 10,5 km/h (2 Bft)
31.10.2014 19:54 14,5 C 12,2 C 92 % 1021,4 hPa 0,0 l/m 0 min 0 min 0 W/m 12,6 km/h (3 Bft)
31.10.2014 19:56 14,5 C 12,2 C 92 % 1021,4 hPa 0,0 l/m 0 min 0 min 0 W/m 8,4 km/h (2 Bft)
31.10.2014 19:58 14,4 C 12,2 C 92 % 1021,4 hPa 0,0 l/m 0 min 0 min 0 W/m 10,5 km/h (2 Bft)
31.10.2014 20:00 14,4 C 12,2 C 92 % 1021,4 hPa 0,0 l/m 0 min 0 min 0 W/m 12,6 km/h (3 Bft)
31.10.2014 20:02 14,4 C 12,2 C 92 % 1021,4 hPa 0,0 l/m 0 min 0 min 0 W/m 10,5 km/h (2 Bft)
31.10.2014 20:04 14,3 C 12,2 C 92 % 1021,4 hPa 0,0 l/m 0 min 0 min 0 W/m 8,4 km/h (2 Bft)
31.10.2014 20:06 14,3 C 12,2 C 92 % 1021,4 hPa 0,0 l/m 0 min 0 min 0 W/m 10,5 km/h (2 Bft)
31.10.2014 20:08 14,3 C 12,2 C 92 % 1021,3 hPa 0,0 l/m 0 min 0 min 0 W/m 12,6 km/h (3 Bft)
31.10.2014 20:10 14,2 C 11,7 C 93 % 1021,4 hPa 0,0 l/m 0 min 0 min 0 W/m 10,5 km/h (2 Bft)
31.10.2014 20:12 14,2 C 11,7 C 93 % 1021,4 hPa 0,0 l/m 0 min 0 min 0 W/m 8,4 km/h (2 Bft)
31.10.2014 20:14 14,2 C 11,7 C 93 % 1021,4 hPa 0,0 l/m 0 min 0 min 0 W/m 8,4 km/h (2 Bft)
31.10.2014 20:16 14,2 C 11,7 C 93 % 1021,4 hPa 0,0 l/m 0 min 0 min 0 W/m 8,4 km/h (2 Bft)
31.10.2014 20:18 14,2 C 11,7 C 93 % 1021,4 hPa 0,0 l/m 0 min 0 min 0 W/m 8,4 km/h (2 Bft)
31.10.2014 20:20 14,2 C 11,7 C 93 % 1021,4 hPa 0,0 l/m 0 min 0 min 0 W/m 8,4 km/h (2 Bft)
31.10.2014 20:22 14,2 C 11,7 C 93 % 1021,4 hPa 0,0 l/m 0 min 0 min 0 W/m 10,5 km/h (2 Bft)
31.10.2014 20:24 14,2 C 11,7 C 93 % 1021,4 hPa 0,0 l/m 0 min 0 min 0 W/m 6,3 km/h (2 Bft)
31.10.2014 20:26 14,1 C 11,7 C 93 % 1021,4 hPa 0,0 l/m 0 min 0 min 0 W/m 12,6 km/h (3 Bft)
31.10.2014 20:28 14,1 C 11,7 C 93 % 1021,4 hPa 0,0 l/m 0 min 0 min 0 W/m 8,4 km/h (2 Bft)
31.10.2014 20:30 14,1 C 11,7 C 93 % 1021,5 hPa 0,0 l/m 0 min 0 min 0 W/m 12,6 km/h (3 Bft)
31.10.2014 20:32 14,0 C 11,7 C 93 % 1021,4 hPa 0,0 l/m 0 min 0 min 0 W/m 8,4 km/h (2 Bft)
31.10.2014 20:34 13,9 C 11,7 C 93 % 1021,4 hPa 0,0 l/m 0 min 0 min 0 W/m 6,3 km/h (2 Bft)
31.10.2014 20:36 13,9 C 11,7 C 93 % 1021,4 hPa 0,0 l/m 0 min 0 min 0 W/m 6,3 km/h (2 Bft)
31.10.2014 20:38 13,9 C 11,7 C 93 % 1021,4 hPa 0,0 l/m 0 min 0 min 0 W/m 8,4 km/h (2 Bft)
31.10.2014 20:40 13,9 C 11,7 C 93 % 1021,4 hPa 0,0 l/m 0 min 0 min 0 W/m 8,4 km/h (2 Bft)
31.10.2014 20:42 13,9 C 11,7 C 93 % 1021,4 hPa 0,0 l/m 0 min 0 min 0 W/m 10,5 km/h (2 Bft)
31.10.2014 20:44 13,8 C 11,7 C 93 % 1021,4 hPa 0,0 l/m 0 min 0 min 0 W/m 8,4 km/h (2 Bft)
31.10.2014 20:46 13,8 C 11,7 C 93 % 1021,5 hPa 0,0 l/m 0 min 0 min 0 W/m 8,4 km/h (2 Bft)
31.10.2014 20:48 13,8 C 11,7 C 93 % 1021,4 hPa 0,0 l/m 0 min 0 min 0 W/m 8,4 km/h (2 Bft)
31.10.2014 20:50 13,8 C 11,7 C 93 % 1021,4 hPa 0,0 l/m 0 min 0 min 0 W/m 8,4 km/h (2 Bft)
31.10.2014 20:52 13,8 C 11,7 C 93 % 1021,4 hPa 0,0 l/m 0 min 0 min 0 W/m 10,5 km/h (2 Bft)
31.10.2014 20:54 13,7 C 11,7 C 94 % 1021,4 hPa 0,0 l/m 0 min 0 min 0 W/m 8,4 km/h (2 Bft)
31.10.2014 20:56 13,7 C 11,7 C 94 % 1021,4 hPa 0,0 l/m 0 min 0 min 0 W/m 10,5 km/h (2 Bft)
31.10.2014 20:58 13,7 C 11,7 C 94 % 1021,4 hPa 0,0 l/m 0 min 0 min 0 W/m 10,5 km/h (2 Bft)
31.10.2014 21:00 13,7 C 11,7 C 94 % 1021,5 hPa 0,0 l/m 0 min 0 min 0 W/m 8,4 km/h (2 Bft)
31.10.2014 21:02 13,7 C 11,7 C 94 % 1021,4 hPa 0,0 l/m 0 min 0 min 0 W/m 6,3 km/h (2 Bft)
31.10.2014 21:04 13,7 C 11,7 C 94 % 1021,4 hPa 0,0 l/m 0 min 0 min 0 W/m 10,5 km/h (2 Bft)
31.10.2014 21:06 13,6 C 11,7 C 94 % 1021,5 hPa 0,0 l/m 0 min 0 min 0 W/m 10,5 km/h (2 Bft)
31.10.2014 21:08 13,6 C 11,7 C 94 % 1021,4 hPa 0,0 l/m 0 min 0 min 0 W/m 10,5 km/h (2 Bft)
31.10.2014 21:10 13,6 C 11,7 C 94 % 1021,4 hPa 0,0 l/m 0 min 0 min 0 W/m 10,5 km/h (2 Bft)
31.10.2014 21:12 13,6 C 11,7 C 94 % 1021,4 hPa 0,0 l/m 0 min 0 min 0 W/m 14,6 km/h (3 Bft)
31.10.2014 21:14 13,6 C 11,7 C 94 % 1021,4 hPa 0,0 l/m 0 min 0 min 0 W/m 8,4 km/h (2 Bft)
31.10.2014 21:16 13,5 C 11,7 C 94 % 1021,4 hPa 0,0 l/m 0 min 0 min 0 W/m 12,6 km/h (3 Bft)
31.10.2014 21:18 13,5 C 11,7 C 94 % 1021,5 hPa 0,0 l/m 0 min 0 min 0 W/m 14,6 km/h (3 Bft)
31.10.2014 21:20 13,5 C 11,7 C 94 % 1021,5 hPa 0,0 l/m 0 min 0 min 0 W/m 8,4 km/h (2 Bft)
31.10.2014 21:22 13,5 C 11,7 C 94 % 1021,4 hPa 0,0 l/m 0 min 0 min 0 W/m 10,5 km/h (2 Bft)
31.10.2014 21:24 13,4 C 11,7 C 94 % 1021,4 hPa 0,0 l/m 0 min 0 min 0 W/m 10,5 km/h (2 Bft)
31.10.2014 21:26 13,4 C 11,7 C 94 % 1021,4 hPa 0,0 l/m 0 min 0 min 0 W/m 10,5 km/h (2 Bft)
31.10.2014 21:28 13,4 C 11,7 C 94 % 1021,4 hPa 0,0 l/m 0 min 0 min 0 W/m 10,5 km/h (2 Bft)
31.10.2014 21:30 13,4 C 11,7 C 94 % 1021,4 hPa 0,0 l/m 0 min 0 min 0 W/m 8,4 km/h (2 Bft)
31.10.2014 21:32 13,4 C 11,7 C 94 % 1021,4 hPa 0,0 l/m 0 min 0 min 0 W/m 8,4 km/h (2 Bft)
31.10.2014 21:34 13,4 C 11,7 C 94 % 1021,4 hPa 0,0 l/m 0 min 0 min 0 W/m 10,5 km/h (2 Bft)
31.10.2014 21:36 13,4 C 11,7 C 94 % 1021,4 hPa 0,0 l/m 0 min 0 min 0 W/m 8,4 km/h (2 Bft)
31.10.2014 21:38 13,3 C 11,7 C 94 % 1021,4 hPa 0,0 l/m 0 min 0 min 0 W/m 8,4 km/h (2 Bft)
31.10.2014 21:40 13,3 C 11,7 C 95 % 1021,5 hPa 0,0 l/m 0 min 0 min 0 W/m 14,6 km/h (3 Bft)
31.10.2014 21:42 13,3 C 11,7 C 95 % 1021,4 hPa 0,0 l/m 0 min 0 min 0 W/m 12,6 km/h (3 Bft)
31.10.2014 21:44 13,3 C 11,7 C 95 % 1021,4 hPa 0,0 l/m 0 min 0 min 0 W/m 8,4 km/h (2 Bft)
31.10.2014 21:46 13,3 C 11,7 C 95 % 1021,4 hPa 0,0 l/m 0 min 0 min 0 W/m 12,6 km/h (3 Bft)
31.10.2014 21:48 13,3 C 11,7 C 95 % 1021,4 hPa 0,0 l/m 0 min 0 min 0 W/m 10,5 km/h (2 Bft)
31.10.2014 21:50 13,3 C 11,7 C 94 % 1021,4 hPa 0,0 l/m 0 min 0 min 0 W/m 12,6 km/h (3 Bft)
31.10.2014 21:52 13,2 C 11,7 C 95 % 1021,4 hPa 0,0 l/m 0 min 0 min 0 W/m 10,5 km/h (2 Bft)
31.10.2014 21:54 13,2 C 11,7 C 95 % 1021,4 hPa 0,0 l/m 0 min 0 min 0 W/m 6,3 km/h (2 Bft)
31.10.2014 21:56 13,2 C 11,1 C 95 % 1021,4 hPa 0,0 l/m 0 min 0 min 0 W/m 12,6 km/h (3 Bft)
31.10.2014 21:58 13,2 C 11,1 C 95 % 1021,4 hPa 0,0 l/m 0 min 0 min 0 W/m 10,5 km/h (2 Bft)
31.10.2014 22:00 13,2 C 11,1 C 95 % 1021,4 hPa 0,0 l/m 0 min 0 min 0 W/m 14,6 km/h (3 Bft)
31.10.2014 22:02 13,2 C 11,1 C 95 % 1021,4 hPa 0,0 l/m 0 min 0 min 0 W/m 14,6 km/h (3 Bft)
31.10.2014 22:04 13,2 C 11,1 C 95 % 1021,3 hPa 0,0 l/m 0 min 0 min 0 W/m 12,6 km/h (3 Bft)
31.10.2014 22:06 13,2 C 11,1 C 95 % 1021,4 hPa 0,0 l/m 0 min 0 min 0 W/m 8,4 km/h (2 Bft)
31.10.2014 22:08 13,2 C 11,1 C 95 % 1021,4 hPa 0,0 l/m 0 min 0 min 0 W/m 14,6 km/h (3 Bft)
31.10.2014 22:10 13,1 C 11,1 C 95 % 1021,4 hPa 0,0 l/m 0 min 0 min 0 W/m 10,5 km/h (2 Bft)
31.10.2014 22:12 13,1 C 11,1 C 95 % 1021,4 hPa 0,0 l/m 0 min 0 min 0 W/m 10,5 km/h (2 Bft)
31.10.2014 22:14 13,1 C 11,1 C 95 % 1021,4 hPa 0,0 l/m 0 min 0 min 0 W/m 10,5 km/h (2 Bft)
31.10.2014 22:16 13,1 C 11,1 C 95 % 1021,4 hPa 0,0 l/m 0 min 0 min 0 W/m 10,5 km/h (2 Bft)
31.10.2014 22:18 13,1 C 11,1 C 95 % 1021,4 hPa 0,0 l/m 0 min 0 min 0 W/m 14,6 km/h (3 Bft)
31.10.2014 22:20 13,1 C 11,1 C 95 % 1021,3 hPa 0,0 l/m 0 min 0 min 0 W/m 10,5 km/h (2 Bft)
31.10.2014 22:22 13,1 C 11,1 C 95 % 1021,3 hPa 0,0 l/m 0 min 0 min 0 W/m 10,5 km/h (2 Bft)
31.10.2014 22:24 13,1 C 11,1 C 95 % 1021,3 hPa 0,0 l/m 0 min 0 min 0 W/m 12,6 km/h (3 Bft)
31.10.2014 22:26 13,1 C 11,1 C 95 % 1021,3 hPa 0,0 l/m 0 min 0 min 0 W/m 10,5 km/h (2 Bft)
31.10.2014 22:28 13,0 C 11,1 C 95 % 1021,3 hPa 0,0 l/m 0 min 0 min 0 W/m 12,6 km/h (3 Bft)
31.10.2014 22:30 13,0 C 11,1 C 95 % 1021,3 hPa 0,0 l/m 0 min 0 min 0 W/m 10,5 km/h (2 Bft)
31.10.2014 22:32 13,0 C 11,1 C 95 % 1021,3 hPa 0,0 l/m 0 min 0 min 0 W/m 12,6 km/h (3 Bft)
31.10.2014 22:34 12,9 C 11,1 C 95 % 1021,2 hPa 0,0 l/m 0 min 0 min 0 W/m 10,5 km/h (2 Bft)
31.10.2014 22:36 12,9 C 11,1 C 95 % 1021,2 hPa 0,0 l/m 0 min 0 min 0 W/m 10,5 km/h (2 Bft)
31.10.2014 22:38 12,9 C 11,1 C 95 % 1021,2 hPa 0,0 l/m 0 min 0 min 0 W/m 10,5 km/h (2 Bft)
31.10.2014 22:40 12,9 C 11,1 C 95 % 1021,3 hPa 0,0 l/m 0 min 0 min 0 W/m 10,5 km/h (2 Bft)
31.10.2014 22:42 12,9 C 11,1 C 95 % 1021,3 hPa 0,0 l/m 0 min 0 min 0 W/m 10,5 km/h (2 Bft)
31.10.2014 22:44 12,9 C 11,1 C 95 % 1021,2 hPa 0,0 l/m 0 min 0 min 0 W/m 14,6 km/h (3 Bft)
31.10.2014 22:46 12,9 C 11,1 C 95 % 1021,3 hPa 0,0 l/m 0 min 0 min 0 W/m 12,6 km/h (3 Bft)
31.10.2014 22:48 12,8 C 11,1 C 95 % 1021,2 hPa 0,0 l/m 0 min 0 min 0 W/m 10,5 km/h (2 Bft)
31.10.2014 22:50 12,8 C 11,1 C 95 % 1021,2 hPa 0,0 l/m 0 min 0 min 0 W/m 8,4 km/h (2 Bft)
31.10.2014 22:52 12,8 C 11,1 C 95 % 1021,2 hPa 0,0 l/m 0 min 0 min 0 W/m 14,6 km/h (3 Bft)
31.10.2014 22:54 12,8 C 11,1 C 95 % 1021,2 hPa 0,0 l/m 0 min 0 min 0 W/m 10,5 km/h (2 Bft)
31.10.2014 22:56 12,8 C 11,1 C 95 % 1021,2 hPa 0,0 l/m 0 min 0 min 0 W/m 12,6 km/h (3 Bft)
31.10.2014 22:58 12,8 C 11,1 C 95 % 1021,2 hPa 0,0 l/m 0 min 0 min 0 W/m 12,6 km/h (3 Bft)
31.10.2014 23:00 12,7 C 11,1 C 95 % 1021,2 hPa 0,0 l/m 0 min 0 min 0 W/m 10,5 km/h (2 Bft)
31.10.2014 23:02 12,7 C 11,1 C 96 % 1021,2 hPa 0,0 l/m 0 min 0 min 0 W/m 10,5 km/h (2 Bft)
31.10.2014 23:04 12,7 C 11,1 C 96 % 1021,2 hPa 0,0 l/m 0 min 0 min 0 W/m 12,6 km/h (3 Bft)
31.10.2014 23:06 12,7 C 10,6 C 96 % 1021,2 hPa 0,0 l/m 0 min 0 min 0 W/m 12,6 km/h (3 Bft)
31.10.2014 23:08 12,7 C 10,6 C 96 % 1021,2 hPa 0,0 l/m 0 min 0 min 0 W/m 8,4 km/h (2 Bft)
31.10.2014 23:10 12,7 C 10,6 C 95 % 1021,2 hPa 0,0 l/m 0 min 0 min 0 W/m 10,5 km/h (2 Bft)
31.10.2014 23:12 12,7 C 10,6 C 95 % 1021,2 hPa 0,0 l/m 0 min 0 min 0 W/m 10,5 km/h (2 Bft)
31.10.2014 23:14 12,6 C 10,6 C 95 % 1021,1 hPa 0,0 l/m 0 min 0 min 0 W/m 12,6 km/h (3 Bft)
31.10.2014 23:16 12,6 C 11,1 C 95 % 1021,1 hPa 0,0 l/m 0 min 0 min 0 W/m 14,6 km/h (3 Bft)
31.10.2014 23:18 12,6 C 10,6 C 96 % 1021,2 hPa 0,0 l/m 0 min 0 min 0 W/m 14,6 km/h (3 Bft)
31.10.2014 23:20 12,6 C 10,6 C 96 % 1021,2 hPa 0,0 l/m 0 min 0 min 0 W/m 12,6 km/h (3 Bft)
31.10.2014 23:22 12,6 C 11,1 C 96 % 1021,1 hPa 0,0 l/m 0 min 0 min 0 W/m 10,5 km/h (2 Bft)
31.10.2014 23:24 12,6 C 11,1 C 96 % 1021,1 hPa 0,0 l/m 0 min 0 min 0 W/m 14,6 km/h (3 Bft)
31.10.2014 23:26 12,6 C 11,1 C 96 % 1021,1 hPa 0,0 l/m 0 min 0 min 0 W/m 12,6 km/h (3 Bft)
31.10.2014 23:28 12,5 C 11,1 C 96 % 1021,1 hPa 0,0 l/m 0 min 0 min 0 W/m 12,6 km/h (3 Bft)
31.10.2014 23:30 12,5 C 11,1 C 96 % 1021,1 hPa 0,0 l/m 0 min 0 min 0 W/m 12,6 km/h (3 Bft)
31.10.2014 23:32 12,5 C 11,1 C 96 % 1021,1 hPa 0,0 l/m 0 min 0 min 0 W/m 12,6 km/h (3 Bft)
31.10.2014 23:34 12,5 C 10,6 C 96 % 1021,0 hPa 0,0 l/m 0 min 0 min 0 W/m 10,5 km/h (2 Bft)
31.10.2014 23:36 12,5 C 10,6 C 96 % 1021,0 hPa 0,0 l/m 0 min 0 min 0 W/m 16,7 km/h (3 Bft)
31.10.2014 23:38 12,4 C 10,6 C 96 % 1021,1 hPa 0,0 l/m 0 min 0 min 0 W/m 12,6 km/h (3 Bft)
31.10.2014 23:40 12,4 C 10,6 C 96 % 1021,0 hPa 0,0 l/m 0 min 0 min 0 W/m 12,6 km/h (3 Bft)
31.10.2014 23:42 12,4 C 10,6 C 96 % 1021,0 hPa 0,0 l/m 0 min 0 min 0 W/m 10,5 km/h (2 Bft)
31.10.2014 23:44 12,4 C 10,6 C 96 % 1021,0 hPa 0,0 l/m 0 min 0 min 0 W/m 14,6 km/h (3 Bft)
31.10.2014 23:46 12,4 C 10,6 C 96 % 1021,0 hPa 0,0 l/m 0 min 0 min 0 W/m 8,4 km/h (2 Bft)
31.10.2014 23:48 12,4 C 10,6 C 96 % 1021,0 hPa 0,0 l/m 0 min 0 min 0 W/m 10,5 km/h (2 Bft)
31.10.2014 23:50 12,4 C 10,6 C 96 % 1020,9 hPa 0,0 l/m 0 min 0 min 0 W/m 12,6 km/h (3 Bft)
31.10.2014 23:52 12,4 C 10,6 C 96 % 1021,0 hPa 0,0 l/m 0 min 0 min 0 W/m 10,5 km/h (2 Bft)
31.10.2014 23:54 12,3 C 10,6 C 96 % 1021,0 hPa 0,0 l/m 0 min 0 min 0 W/m 10,5 km/h (2 Bft)
31.10.2014 23:56 12,3 C 10,6 C 96 % 1021,0 hPa 0,0 l/m 0 min 0 min 0 W/m 10,5 km/h (2 Bft)
31.10.2014 23:58 12,3 C 10,6 C 96 % 1021,0 hPa 0,0 l/m 0 min 0 min 0 W/m 10,5 km/h (2 Bft)
_ Min-Zeit 05:32 03:16 14:10 23:50 - - - - 02:04
Minimum _ 10,8 C 9,4 C 82 % 1020,9 hPa - - - - 4,2 km/h (1 Bft)
_ Max-Zeit 13:54 13:20 08:16 11:00 00:00 09:48 00:00 13:18 16:04
Maximum _ 18,7 C 17,2 C 99 % 1023,1 hPa 0,0 l/m 2 min 0 min 381 W/m 27,2 km/h
SO (4 Bft)
Durchschnitt _ 14,0 C 12,5 C 93 % 1022,0 hPa #0,0 l/m #4:28 h #0 min. 155 W/m 12,5 km/h (3 Bft)
© 2014 W. Hausmann